VOZ001 YSSY-OTHH

Flight info

Callsign VOZ001
Flight time 14h 20m
Altitude 28000
Route TESAT A576 PKS J141 LEC T21 PD N509 ELATI N640 KAT P570 EMURU N563 UMIBU P899 TOVOX
Aircraft B77W/H-SDE1E2E3FGHIJ2J3J4J5M1RWXY/LB1D1

Departure

Time 2026-05-09 20:02
Airport Sydney Kingsford Smith International Airport (YSSY)

Arrival

Time 2026-05-10 10:22
Airport Hamad International Airport (OTHH)
Time Latitude Longitude Altitude Speed Heading
2026-05-09 19:42 -33.93627 151.16921 35 ft 0 kts 178°
2026-05-09 19:52 -33.93620 151.16921 19 ft 4 kts 178°
2026-05-09 19:52 -33.93592 151.16920 34 ft 4 kts 178°
2026-05-09 19:52 -33.93565 151.16919 32 ft 4 kts 178°
2026-05-09 19:52 -33.93539 151.16918 35 ft 4 kts 179°
2026-05-09 19:53 -33.93514 151.16917 35 ft 1 kts 180°
2026-05-09 19:53 -33.93491 151.16917 34 ft 4 kts 174°
2026-05-09 19:53 -33.93464 151.16912 34 ft 4 kts 167°
2026-05-09 19:53 -33.93444 151.16906 33 ft 0 kts 167°
2026-05-09 19:56 -33.93466 151.16913 35 ft 8 kts 164°
2026-05-09 19:56 -33.93505 151.16989 34 ft 15 kts 87°
2026-05-09 19:56 -33.93544 151.17106 34 ft 18 kts 155°
2026-05-09 19:56 -33.93679 151.17149 34 ft 22 kts 168°
2026-05-09 19:57 -33.93848 151.17193 33 ft 27 kts 167°
2026-05-09 19:57 -33.94038 151.17244 34 ft 29 kts 168°
2026-05-09 19:57 -33.94233 151.17293 34 ft 29 kts 168°
2026-05-09 19:57 -33.94428 151.17342 35 ft 29 kts 167°
2026-05-09 19:58 -33.94622 151.17394 35 ft 29 kts 167°
2026-05-09 19:58 -33.94816 151.17445 34 ft 29 kts 168°
2026-05-09 19:58 -33.95011 151.17496 34 ft 29 kts 168°
2026-05-09 19:58 -33.95205 151.17545 34 ft 29 kts 168°
2026-05-09 19:59 -33.95400 151.17595 34 ft 29 kts 168°
2026-05-09 19:59 -33.95594 151.17644 35 ft 29 kts 168°
2026-05-09 19:59 -33.95788 151.17696 35 ft 29 kts 167°
2026-05-09 19:59 -33.95983 151.17748 35 ft 29 kts 167°
2026-05-09 20:00 -33.96177 151.17797 35 ft 29 kts 168°
2026-05-09 20:00 -33.96347 151.17840 35 ft 17 kts 168°
2026-05-09 20:00 -33.96434 151.17924 35 ft 17 kts 103°
2026-05-09 20:00 -33.96405 151.18038 34 ft 4 kts 45°
2026-05-09 20:01 -33.96376 151.18050 34 ft 5 kts 355°
2026-05-09 20:01 -33.96314 151.18034 34 ft 26 kts 348°
2026-05-09 20:01 -33.95875 151.17924 33 ft 101 kts 347°
2026-05-09 20:01 -33.94977 151.17687 33 ft 165 kts 347°
2026-05-09 20:02 -33.93681 151.17351 94 ft 208 kts 347°
2026-05-09 20:02 -33.92319 151.17013 912 ft 198 kts 346°
2026-05-09 20:02 -33.91028 151.16298 1162 ft 213 kts 307°
2026-05-09 20:03 -33.89429 151.13145 1817 ft 238 kts 299°
2026-05-09 20:03 -33.88532 151.11401 2155 ft 252 kts 300°
2026-05-09 20:03 -33.87560 151.09541 2450 ft 268 kts 301°
2026-05-09 20:03 -33.86542 151.07618 2970 ft 277 kts 301°
2026-05-09 20:04 -33.85496 151.05657 3602 ft 281 kts 302°
2026-05-09 20:04 -33.84431 151.03664 4227 ft 285 kts 302°
2026-05-09 20:04 -33.83405 151.01621 4821 ft 286 kts 292°
2026-05-09 20:04 -33.82894 150.99378 5257 ft 291 kts 279°
2026-05-09 20:05 -33.82527 150.96978 5880 ft 292 kts 280°
2026-05-09 20:05 -33.82151 150.94578 6602 ft 291 kts 280°
2026-05-09 20:05 -33.81769 150.92184 7238 ft 293 kts 280°
2026-05-09 20:05 -33.81376 150.89771 7821 ft 295 kts 281°
2026-05-09 20:06 -33.80975 150.87341 8416 ft 297 kts 281°
2026-05-09 20:06 -33.80566 150.84896 9023 ft 299 kts 280°
2026-05-09 20:06 -33.80151 150.82438 9628 ft 301 kts 280°
2026-05-09 20:06 -33.79733 150.79966 10230 ft 303 kts 280°
2026-05-09 20:07 -33.79300 150.77416 10440 ft 320 kts 280°
2026-05-09 20:07 -33.78842 150.74726 10595 ft 338 kts 281°
2026-05-09 20:07 -33.78522 150.72856 10685 ft 351 kts 281°
2026-05-09 20:07 -33.78018 150.69914 10913 ft 366 kts 281°
2026-05-09 20:08 -33.77496 150.66884 11331 ft 375 kts 281°
2026-05-09 20:08 -33.76422 150.60662 12517 ft 383 kts 281°
2026-05-09 20:08 -33.75877 150.57514 13159 ft 386 kts 281°
2026-05-09 20:09 -33.75328 150.54339 13776 ft 390 kts 281°
2026-05-09 20:09 -33.74772 150.51132 14377 ft 394 kts 281°
2026-05-09 20:09 -33.74211 150.47899 14955 ft 396 kts 281°
2026-05-09 20:09 -33.73646 150.44650 15569 ft 398 kts 281°
2026-05-09 20:10 -33.73077 150.41384 16144 ft 401 kts 281°
2026-05-09 20:10 -33.72504 150.38099 16734 ft 403 kts 281°
2026-05-09 20:10 -33.71927 150.34799 17359 ft 404 kts 281°
2026-05-09 20:10 -33.71348 150.31490 17959 ft 407 kts 282°
2026-05-09 20:11 -33.70713 150.28159 18438 ft 411 kts 285°
2026-05-09 20:11 -33.69886 150.24856 18941 ft 415 kts 288°
2026-05-09 20:11 -33.68966 150.21566 19426 ft 417 kts 289°
2026-05-09 20:11 -33.68017 150.18265 19923 ft 419 kts 289°
2026-05-09 20:12 -33.67067 150.14952 20357 ft 423 kts 289°
2026-05-09 20:12 -33.66116 150.11590 20729 ft 428 kts 288°
2026-05-09 20:12 -33.65166 150.08189 21175 ft 431 kts 288°
2026-05-09 20:12 -33.64221 150.04770 21679 ft 433 kts 288°
2026-05-09 20:13 -33.63274 150.01329 22110 ft 436 kts 288°
2026-05-09 20:13 -33.62356 149.97977 22576 ft 437 kts 288°
2026-05-09 20:13 -33.61403 149.94500 23029 ft 440 kts 288°
2026-05-09 20:13 -33.60441 149.90998 23417 ft 444 kts 288°
2026-05-09 20:14 -33.59471 149.87465 23806 ft 448 kts 288°
2026-05-09 20:14 -33.58492 149.83908 24180 ft 450 kts 288°
2026-05-09 20:14 -33.57507 149.80334 24552 ft 452 kts 288°
2026-05-09 20:14 -33.56518 149.76748 24920 ft 454 kts 288°
2026-05-09 20:15 -33.55522 149.73146 25258 ft 457 kts 288°
2026-05-09 20:15 -33.54533 149.69572 25586 ft 459 kts 288°
2026-05-09 20:15 -33.53527 149.65938 25950 ft 460 kts 288°
2026-05-09 20:15 -33.52515 149.62291 26288 ft 462 kts 288°
2026-05-09 20:16 -33.51482 149.58573 26547 ft 466 kts 288°
2026-05-09 20:16 -33.50457 149.54889 26852 ft 468 kts 288°
2026-05-09 20:16 -33.49426 149.51186 27191 ft 469 kts 288°
2026-05-09 20:16 -33.48389 149.47467 27484 ft 472 kts 289°
2026-05-09 20:17 -33.47347 149.43736 27825 ft 473 kts 288°
2026-05-09 20:17 -33.46314 149.40042 28084 ft 475 kts 289°
2026-05-09 20:17 -33.45260 149.36279 28333 ft 478 kts 289°
2026-05-09 20:18 -33.43123 149.28659 28424 ft 486 kts 289°
2026-05-09 20:18 -33.40948 149.20929 28434 ft 492 kts 289°
2026-05-09 20:19 -33.38759 149.13166 28417 ft 492 kts 289°
2026-05-09 20:19 -33.36564 149.05406 28422 ft 492 kts 289°
2026-05-09 20:20 -33.34402 148.97779 28410 ft 492 kts 289°
2026-05-09 20:20 -33.32198 148.90028 28408 ft 492 kts 289°
2026-05-09 20:21 -33.29991 148.82288 28407 ft 492 kts 289°
2026-05-09 20:21 -33.27782 148.74559 28403 ft 491 kts 289°
2026-05-09 20:22 -33.25569 148.66837 28399 ft 491 kts 289°
2026-05-09 20:22 -33.23351 148.59119 28401 ft 491 kts 289°
2026-05-09 20:23 -33.21126 148.51398 28398 ft 492 kts 289°
2026-05-09 20:23 -33.18896 148.43677 28394 ft 492 kts 290°
2026-05-09 20:24 -33.16660 148.35957 28386 ft 492 kts 290°
2026-05-09 20:24 -33.14424 148.28250 28389 ft 492 kts 290°
2026-05-09 20:25 -33.12345 148.20475 28382 ft 492 kts 285°
2026-05-09 20:25 -33.10669 148.12564 28380 ft 492 kts 284°
2026-05-09 20:26 -33.09009 148.04648 28380 ft 492 kts 284°
2026-05-09 20:26 -33.07353 147.96867 28378 ft 492 kts 285°
2026-05-09 20:27 -33.05653 147.88974 28381 ft 491 kts 285°
2026-05-09 20:27 -33.03946 147.81092 28375 ft 491 kts 285°
2026-05-09 20:28 -33.02237 147.73221 28378 ft 490 kts 285°
2026-05-09 20:28 -33.00526 147.65367 28377 ft 490 kts 285°
2026-05-09 20:29 -32.97966 147.53657 28375 ft 489 kts 285°
2026-05-09 20:29 -32.96247 147.45826 28377 ft 488 kts 285°
2026-05-09 20:30 -32.94525 147.38005 28378 ft 488 kts 285°
2026-05-09 20:30 -32.92799 147.30195 28376 ft 488 kts 285°
2026-05-09 20:31 -32.91070 147.22395 28373 ft 487 kts 285°
2026-05-09 20:31 -32.89338 147.14604 28374 ft 487 kts 285°
2026-05-09 20:32 -32.87603 147.06827 28382 ft 487 kts 285°
2026-05-09 20:32 -32.85889 146.99165 28378 ft 487 kts 285°
2026-05-09 20:33 -32.84143 146.91386 28379 ft 487 kts 285°
2026-05-09 20:33 -32.82392 146.83612 28381 ft 487 kts 285°
2026-05-09 20:34 -32.80638 146.75845 28376 ft 486 kts 285°
2026-05-09 20:34 -32.78880 146.68088 28377 ft 486 kts 285°
2026-05-09 20:35 -32.77119 146.60339 28375 ft 486 kts 285°
2026-05-09 20:35 -32.75354 146.52596 28374 ft 485 kts 285°
2026-05-09 20:36 -32.73586 146.44867 28380 ft 485 kts 285°
2026-05-09 20:36 -32.71812 146.37132 28380 ft 485 kts 286°
2026-05-09 20:37 -32.70033 146.29401 28383 ft 485 kts 285°
2026-05-09 20:37 -32.68262 146.21730 28380 ft 485 kts 286°
2026-05-09 20:38 -32.66477 146.14018 28379 ft 484 kts 286°
2026-05-09 20:38 -32.64689 146.06317 28379 ft 484 kts 286°
2026-05-09 20:39 -32.62927 145.98756 28386 ft 483 kts 286°
2026-05-09 20:39 -32.61134 145.91078 28380 ft 483 kts 286°
2026-05-09 20:40 -32.59339 145.83418 28380 ft 482 kts 286°
2026-05-09 20:40 -32.57538 145.75755 28388 ft 482 kts 286°
2026-05-09 20:41 -32.55735 145.68106 28381 ft 481 kts 286°
2026-05-09 20:41 -32.53930 145.60471 28382 ft 481 kts 286°
2026-05-09 20:42 -32.52123 145.52845 28375 ft 481 kts 286°
2026-05-09 20:42 -32.50306 145.45205 28384 ft 482 kts 286°
2026-05-09 20:43 -32.48477 145.37544 28385 ft 484 kts 286°
2026-05-09 20:43 -32.46639 145.29862 28379 ft 485 kts 286°
2026-05-09 20:44 -32.44797 145.22181 28387 ft 485 kts 286°
2026-05-09 20:44 -32.42951 145.14508 28375 ft 484 kts 286°
2026-05-09 20:45 -32.41105 145.06861 28374 ft 482 kts 286°
2026-05-09 20:45 -32.39296 144.99383 28381 ft 481 kts 286°
2026-05-09 20:46 -32.37451 144.91785 28377 ft 480 kts 286°
2026-05-09 20:46 -32.35606 144.84204 28379 ft 479 kts 286°
2026-05-09 20:47 -32.33770 144.76684 28379 ft 479 kts 286°
2026-05-09 20:47 -32.31919 144.69123 28383 ft 478 kts 286°
2026-05-09 20:48 -32.30054 144.61523 28376 ft 478 kts 287°
2026-05-09 20:48 -32.28212 144.54044 28380 ft 477 kts 287°
2026-05-09 20:49 -32.26354 144.46517 28384 ft 477 kts 287°
2026-05-09 20:49 -32.24494 144.39004 28379 ft 476 kts 287°
2026-05-09 20:50 -32.22631 144.31502 28382 ft 476 kts 287°
2026-05-09 20:50 -32.20766 144.24010 28384 ft 475 kts 287°
2026-05-09 20:51 -32.18898 144.16526 28379 ft 475 kts 287°
2026-05-09 20:51 -32.17026 144.09050 28381 ft 475 kts 287°
2026-05-09 20:52 -32.15153 144.01588 28386 ft 475 kts 287°
2026-05-09 20:52 -32.13302 143.94236 28383 ft 475 kts 287°
2026-05-09 20:53 -32.11418 143.86770 28386 ft 475 kts 287°
2026-05-09 20:53 -32.09529 143.79305 28386 ft 475 kts 287°
2026-05-09 20:54 -32.07954 143.73099 28386 ft 475 kts 287°
2026-05-09 20:54 -32.06059 143.65647 28388 ft 475 kts 287°
2026-05-09 20:55 -32.04159 143.58191 28384 ft 475 kts 287°
2026-05-09 20:55 -32.02254 143.50740 28370 ft 475 kts 287°
2026-05-09 20:56 -31.99386 143.39593 28378 ft 474 kts 287°
2026-05-09 20:57 -31.97468 143.32161 28378 ft 474 kts 287°
2026-05-09 20:57 -31.95547 143.24736 28394 ft 474 kts 287°
2026-05-09 20:58 -31.93625 143.17323 28395 ft 473 kts 287°
2026-05-09 20:58 -31.91701 143.09921 28393 ft 472 kts 287°
2026-05-09 20:59 -31.89777 143.02538 28375 ft 472 kts 287°
2026-05-09 20:59 -31.87877 142.95268 28392 ft 472 kts 287°
2026-05-09 21:00 -31.84976 142.84203 28397 ft 472 kts 287°
2026-05-09 21:00 -31.83037 142.76832 28398 ft 472 kts 287°
2026-05-09 21:01 -31.81107 142.69514 28401 ft 472 kts 288°
2026-05-09 21:02 -31.78184 142.58466 28389 ft 472 kts 288°
2026-05-09 21:02 -31.76225 142.51087 28395 ft 474 kts 288°
2026-05-09 21:03 -31.74245 142.43647 28398 ft 474 kts 288°
2026-05-09 21:03 -31.72288 142.36311 28394 ft 474 kts 288°
2026-05-09 21:04 -31.70311 142.28922 28411 ft 474 kts 288°
2026-05-09 21:04 -31.68331 142.21539 28399 ft 474 kts 288°
2026-05-09 21:05 -31.66349 142.14167 28405 ft 473 kts 288°
2026-05-09 21:05 -31.64364 142.06804 28420 ft 473 kts 288°
2026-05-09 21:06 -31.62406 141.99560 28402 ft 473 kts 288°
2026-05-09 21:06 -31.60414 141.92207 28402 ft 473 kts 288°
2026-05-09 21:07 -31.58418 141.84859 28404 ft 473 kts 288°
2026-05-09 21:07 -31.56421 141.77524 28405 ft 473 kts 288°
2026-05-09 21:08 -31.54415 141.70176 28405 ft 473 kts 288°
2026-05-09 21:08 -31.52409 141.62848 28404 ft 473 kts 288°
2026-05-09 21:09 -31.50397 141.55514 28406 ft 473 kts 288°
2026-05-09 21:09 -31.48380 141.48181 28403 ft 473 kts 288°
2026-05-09 21:10 -31.46358 141.40851 28405 ft 473 kts 288°
2026-05-09 21:10 -31.44332 141.33522 28411 ft 473 kts 288°
2026-05-09 21:11 -31.42304 141.26203 28405 ft 473 kts 288°
2026-05-09 21:12 -31.37224 141.07947 28400 ft 473 kts 288°
2026-05-09 21:12 -31.35181 141.00633 28400 ft 473 kts 288°
2026-05-09 21:13 -31.33156 140.93440 28401 ft 473 kts 289°
2026-05-09 21:13 -31.31090 140.86138 28410 ft 473 kts 289°
2026-05-09 21:14 -31.29021 140.78838 28403 ft 473 kts 289°
2026-05-09 21:14 -31.26949 140.71540 28406 ft 473 kts 289°
2026-05-09 21:15 -31.24876 140.64252 28404 ft 473 kts 289°
2026-05-09 21:15 -31.22796 140.56959 28404 ft 473 kts 289°
2026-05-09 21:16 -31.20712 140.49668 28400 ft 473 kts 289°
2026-05-09 21:16 -31.18622 140.42378 28397 ft 473 kts 289°
2026-05-09 21:17 -31.16529 140.35091 28403 ft 473 kts 289°
2026-05-09 21:17 -31.14431 140.27806 28403 ft 473 kts 289°
2026-05-09 21:18 -31.12330 140.20524 28407 ft 473 kts 289°
2026-05-09 21:18 -31.10224 140.13246 28404 ft 473 kts 289°
2026-05-09 21:19 -31.06032 139.98811 28406 ft 474 kts 289°
2026-05-09 21:20 -31.03912 139.91535 28403 ft 474 kts 289°
2026-05-09 21:20 -31.01802 139.84309 28412 ft 474 kts 289°
2026-05-09 21:21 -30.99678 139.77055 28404 ft 474 kts 289°
2026-05-09 21:21 -30.97547 139.69792 28404 ft 473 kts 289°
2026-05-09 21:22 -30.95413 139.62537 28405 ft 473 kts 289°
2026-05-09 21:22 -30.93275 139.55288 28410 ft 473 kts 289°
2026-05-09 21:23 -30.91137 139.48051 28410 ft 473 kts 289°
2026-05-09 21:23 -30.88991 139.40808 28411 ft 473 kts 289°
2026-05-09 21:24 -30.86841 139.33567 28413 ft 473 kts 289°
2026-05-09 21:24 -30.84687 139.26328 28413 ft 473 kts 289°
2026-05-09 21:25 -30.82528 139.19091 28418 ft 473 kts 289°
2026-05-09 21:25 -30.80365 139.11856 28418 ft 473 kts 289°
2026-05-09 21:26 -30.78198 139.04622 28417 ft 474 kts 289°
2026-05-09 21:26 -30.76059 138.97503 28416 ft 474 kts 290°
2026-05-09 21:27 -30.73886 138.90282 28412 ft 474 kts 290°
2026-05-09 21:27 -30.71705 138.83055 28415 ft 474 kts 290°
2026-05-09 21:28 -30.69535 138.75879 28419 ft 474 kts 290°
2026-05-09 21:28 -30.67346 138.68655 28411 ft 474 kts 290°
2026-05-09 21:29 -30.65138 138.61384 28409 ft 474 kts 290°
2026-05-09 21:29 -30.62955 138.54213 28405 ft 474 kts 290°
2026-05-09 21:30 -30.60754 138.46998 28408 ft 474 kts 290°
2026-05-09 21:30 -30.58261 138.39935 28413 ft 473 kts 295°
2026-05-09 21:31 -30.55442 138.33027 28404 ft 474 kts 295°
2026-05-09 21:31 -30.52623 138.26113 28402 ft 474 kts 295°
2026-05-09 21:32 -30.49817 138.19188 28398 ft 474 kts 295°
2026-05-09 21:32 -30.47015 138.12260 28401 ft 475 kts 295°
2026-05-09 21:33 -30.44210 138.05334 28400 ft 475 kts 295°
2026-05-09 21:33 -30.41443 137.98519 28399 ft 475 kts 295°
2026-05-09 21:34 -30.38628 137.91599 28394 ft 475 kts 295°
2026-05-09 21:34 -30.35809 137.84681 28393 ft 475 kts 295°
2026-05-09 21:35 -30.32989 137.77774 28396 ft 475 kts 296°
2026-05-09 21:35 -30.30161 137.70860 28397 ft 475 kts 296°
2026-05-09 21:36 -30.27328 137.63949 28394 ft 475 kts 296°
2026-05-09 21:36 -30.24492 137.57041 28394 ft 475 kts 296°
2026-05-09 21:37 -30.21670 137.50182 28395 ft 475 kts 296°
2026-05-09 21:37 -30.18827 137.43282 28395 ft 475 kts 296°
2026-05-09 21:38 -30.15980 137.36387 28397 ft 475 kts 296°
2026-05-09 21:38 -30.13130 137.29496 28395 ft 475 kts 296°
2026-05-09 21:39 -30.10278 137.22615 28395 ft 475 kts 296°
2026-05-09 21:39 -30.07420 137.15729 28393 ft 475 kts 296°
2026-05-09 21:40 -30.04558 137.08848 28395 ft 475 kts 296°
2026-05-09 21:40 -30.01692 137.01971 28393 ft 475 kts 296°
2026-05-09 21:41 -29.98878 136.95229 28394 ft 475 kts 296°
2026-05-09 21:41 -29.96006 136.88361 28390 ft 475 kts 296°
2026-05-09 21:42 -29.93619 136.82662 28393 ft 475 kts 296°
2026-05-09 21:42 -29.90741 136.75803 28400 ft 475 kts 296°
2026-05-09 21:43 -29.87859 136.68946 28394 ft 475 kts 296°
2026-05-09 21:43 -29.84973 136.62091 28394 ft 475 kts 296°
2026-05-09 21:44 -29.82253 136.55644 28678 ft 478 kts 296°
2026-05-09 21:44 -29.80803 136.52210 29143 ft 475 kts 296°
2026-05-09 21:44 -29.79363 136.48804 29642 ft 471 kts 296°
2026-05-09 21:45 -29.77935 136.45428 30176 ft 467 kts 296°
2026-05-09 21:45 -29.76515 136.42074 30587 ft 465 kts 296°
2026-05-09 21:45 -29.75099 136.38733 30874 ft 464 kts 296°
2026-05-09 21:45 -29.73682 136.35392 31118 ft 465 kts 297°
2026-05-09 21:46 -29.72264 136.32050 31366 ft 465 kts 297°
2026-05-09 21:46 -29.70846 136.28713 31641 ft 464 kts 297°
2026-05-09 21:46 -29.69430 136.25383 31915 ft 463 kts 297°
2026-05-09 21:46 -29.68014 136.22060 32166 ft 463 kts 297°
2026-05-09 21:47 -29.65159 136.15408 32284 ft 464 kts 297°
2026-05-09 21:47 -29.62300 136.08767 32280 ft 462 kts 297°
2026-05-09 21:48 -29.59459 136.02173 32291 ft 460 kts 297°
2026-05-09 21:48 -29.56670 135.95704 32346 ft 458 kts 297°
2026-05-09 21:49 -29.53859 135.89198 32386 ft 458 kts 297°
2026-05-09 21:49 -29.51017 135.82629 32399 ft 460 kts 297°
2026-05-09 21:50 -29.48160 135.76036 32397 ft 462 kts 297°
2026-05-09 21:51 -29.43847 135.66106 32396 ft 464 kts 297°
2026-05-09 21:51 -29.40963 135.59481 32393 ft 465 kts 297°
2026-05-09 21:52 -29.38074 135.52853 32390 ft 464 kts 297°
2026-05-09 21:52 -29.35185 135.46238 32389 ft 464 kts 297°
2026-05-09 21:53 -29.32298 135.39638 32391 ft 463 kts 297°
2026-05-09 21:53 -29.29411 135.33051 32391 ft 462 kts 297°
2026-05-09 21:54 -29.25079 135.23187 32394 ft 462 kts 297°
2026-05-09 21:54 -29.22208 135.16663 32398 ft 462 kts 297°
2026-05-09 21:55 -29.19314 135.10097 32394 ft 462 kts 297°
2026-05-09 21:55 -29.16418 135.03538 32395 ft 462 kts 297°
2026-05-09 21:56 -29.13559 134.97073 32401 ft 463 kts 297°
2026-05-09 21:56 -29.10646 134.90496 32398 ft 464 kts 297°
2026-05-09 21:57 -29.07726 134.83915 32399 ft 464 kts 297°
2026-05-09 21:57 -29.04800 134.77332 32396 ft 465 kts 298°
2026-05-09 21:58 -29.01871 134.70750 32398 ft 465 kts 298°
2026-05-09 21:58 -28.98945 134.64188 32401 ft 464 kts 298°
2026-05-09 21:59 -28.96014 134.57622 32401 ft 464 kts 298°
2026-05-09 21:59 -28.93081 134.51070 32402 ft 464 kts 298°
2026-05-09 22:00 -28.90142 134.44519 32394 ft 463 kts 298°
2026-05-09 22:00 -28.87205 134.37980 32405 ft 463 kts 298°
2026-05-09 22:01 -28.84267 134.31447 32402 ft 463 kts 298°
2026-05-09 22:01 -28.81328 134.24920 32406 ft 462 kts 298°
2026-05-09 22:02 -28.78385 134.18397 32408 ft 462 kts 298°
2026-05-09 22:02 -28.75440 134.11880 32401 ft 462 kts 298°
2026-05-09 22:03 -28.72492 134.05366 32409 ft 462 kts 298°
2026-05-09 22:03 -28.69590 133.98964 32391 ft 463 kts 298°
2026-05-09 22:04 -28.66634 133.92455 32410 ft 463 kts 298°
2026-05-09 22:04 -28.63677 133.85952 32410 ft 462 kts 298°
2026-05-09 22:05 -28.60736 133.79496 32393 ft 463 kts 298°
2026-05-09 22:05 -28.57771 133.72997 32401 ft 463 kts 298°
2026-05-09 22:06 -28.54802 133.66500 32411 ft 463 kts 298°
2026-05-09 22:06 -28.51831 133.60011 32402 ft 462 kts 298°
2026-05-09 22:07 -28.48859 133.53526 32392 ft 462 kts 298°
2026-05-09 22:07 -28.45887 133.47054 32420 ft 462 kts 298°
2026-05-09 22:08 -28.42910 133.40582 32399 ft 462 kts 298°
2026-05-09 22:08 -28.39932 133.34117 32415 ft 462 kts 298°
2026-05-09 22:09 -28.36952 133.27658 32399 ft 462 kts 298°
2026-05-09 22:09 -28.33970 133.21205 32406 ft 462 kts 298°
2026-05-09 22:10 -28.30984 133.14754 32401 ft 461 kts 298°
2026-05-09 22:10 -28.27996 133.08309 32403 ft 461 kts 298°
2026-05-09 22:11 -28.25006 133.01869 32410 ft 461 kts 298°
2026-05-09 22:11 -28.22061 132.95535 32402 ft 462 kts 298°
2026-05-09 22:12 -28.19063 132.89099 32403 ft 461 kts 298°
2026-05-09 22:12 -28.16084 132.82713 32401 ft 461 kts 298°
2026-05-09 22:13 -28.13084 132.76291 32402 ft 461 kts 298°
2026-05-09 22:13 -28.10082 132.69874 32399 ft 461 kts 298°
2026-05-09 22:14 -28.07077 132.63463 32400 ft 461 kts 298°
2026-05-09 22:14 -28.04069 132.57055 32405 ft 461 kts 298°
2026-05-09 22:15 -28.01055 132.50644 32403 ft 461 kts 298°
2026-05-09 22:15 -27.98043 132.44247 32396 ft 462 kts 298°
2026-05-09 22:16 -27.95022 132.37839 32402 ft 462 kts 298°
2026-05-09 22:16 -27.91996 132.31432 32400 ft 462 kts 298°
2026-05-09 22:17 -27.88968 132.25031 32404 ft 462 kts 298°
2026-05-09 22:17 -27.85959 132.18679 32416 ft 461 kts 298°
2026-05-09 22:18 -27.82928 132.12288 32398 ft 461 kts 298°
2026-05-09 22:18 -27.79895 132.05906 32399 ft 461 kts 298°
2026-05-09 22:19 -27.76913 131.99637 32403 ft 461 kts 298°
2026-05-09 22:19 -27.73876 131.93263 32404 ft 461 kts 298°
2026-05-09 22:20 -27.70836 131.86894 32402 ft 461 kts 298°
2026-05-09 22:20 -27.67794 131.80534 32400 ft 460 kts 298°
2026-05-09 22:21 -27.64751 131.74180 32405 ft 460 kts 298°
2026-05-09 22:21 -27.61705 131.67826 32404 ft 461 kts 298°
2026-05-09 22:22 -27.58657 131.61476 32403 ft 460 kts 298°
2026-05-09 22:22 -27.55612 131.55141 32409 ft 459 kts 298°
2026-05-09 22:23 -27.52564 131.48811 32399 ft 460 kts 298°
2026-05-09 22:23 -27.49516 131.42491 32397 ft 460 kts 299°
2026-05-09 22:24 -27.46464 131.36169 32398 ft 459 kts 298°
2026-05-09 22:24 -27.43414 131.29863 32400 ft 458 kts 298°
2026-05-09 22:25 -27.40363 131.23564 32393 ft 458 kts 298°
2026-05-09 22:25 -27.37311 131.17273 32394 ft 458 kts 298°
2026-05-09 22:26 -27.34257 131.10987 32401 ft 458 kts 298°
2026-05-09 22:26 -27.31204 131.04710 32396 ft 457 kts 298°
2026-05-09 22:27 -27.28198 130.98540 32393 ft 457 kts 298°
2026-05-09 22:27 -27.25148 130.92289 32393 ft 456 kts 298°
2026-05-09 22:28 -27.22090 130.86030 32396 ft 456 kts 299°
2026-05-09 22:28 -27.19038 130.79795 32393 ft 455 kts 298°
2026-05-09 22:29 -27.15987 130.73568 32389 ft 455 kts 298°
2026-05-09 22:29 -27.12958 130.67396 32390 ft 454 kts 298°
2026-05-09 22:30 -27.09910 130.61194 32385 ft 453 kts 298°
2026-05-09 22:30 -27.06863 130.55004 32386 ft 452 kts 298°
2026-05-09 22:31 -27.03826 130.48842 32380 ft 451 kts 298°
2026-05-09 22:31 -27.00789 130.42687 32382 ft 451 kts 298°
2026-05-09 22:32 -26.97753 130.36545 32383 ft 451 kts 298°
2026-05-09 22:32 -26.94710 130.30398 32378 ft 451 kts 298°
2026-05-09 22:33 -26.92179 130.25292 32384 ft 450 kts 298°
2026-05-09 22:33 -26.89136 130.19159 32375 ft 450 kts 298°
2026-05-09 22:34 -26.86095 130.13040 32378 ft 450 kts 298°
2026-05-09 22:34 -26.83049 130.06920 32374 ft 450 kts 298°
2026-05-09 22:35 -26.80001 130.00803 32381 ft 450 kts 298°
2026-05-09 22:35 -26.76991 129.94771 32371 ft 451 kts 298°
2026-05-09 22:36 -26.73923 129.88632 32373 ft 452 kts 298°
2026-05-09 22:36 -26.70846 129.82483 32368 ft 453 kts 298°
2026-05-09 22:37 -26.67760 129.76325 32364 ft 454 kts 298°
2026-05-09 22:37 -26.64669 129.70165 32363 ft 454 kts 298°
2026-05-09 22:38 -26.61584 129.64027 32363 ft 453 kts 298°
2026-05-09 22:39 -26.56958 129.54838 32361 ft 452 kts 298°
2026-05-09 22:39 -26.53874 129.48722 32354 ft 452 kts 298°
2026-05-09 22:40 -26.49252 129.39573 32350 ft 450 kts 298°
2026-05-09 22:40 -26.46177 129.33496 32357 ft 449 kts 298°
2026-05-09 22:41 -26.43101 129.27424 32350 ft 449 kts 298°
2026-05-09 22:41 -26.40042 129.21394 32350 ft 450 kts 298°
2026-05-09 22:42 -26.36938 129.15285 32339 ft 449 kts 297°
2026-05-09 22:42 -26.33881 129.09276 32348 ft 449 kts 297°
2026-05-09 22:43 -26.30800 129.03227 32342 ft 448 kts 297°
2026-05-09 22:43 -26.27766 128.97277 32346 ft 449 kts 297°
2026-05-09 22:44 -26.24677 128.91235 32343 ft 449 kts 297°
2026-05-09 22:44 -26.21584 128.85199 32341 ft 448 kts 297°
2026-05-09 22:45 -26.18492 128.79173 32337 ft 448 kts 297°
2026-05-09 22:45 -26.15402 128.73155 32344 ft 447 kts 297°
2026-05-09 22:46 -26.12316 128.67153 32335 ft 447 kts 297°
2026-05-09 22:47 -26.07677 128.58144 32326 ft 447 kts 297°
2026-05-09 22:47 -26.04585 128.52150 32331 ft 446 kts 297°
2026-05-09 22:48 -26.01495 128.46168 32328 ft 446 kts 297°
2026-05-09 22:48 -25.98410 128.40203 32321 ft 445 kts 297°
2026-05-09 22:49 -25.95321 128.34238 32326 ft 445 kts 297°
2026-05-09 22:49 -25.92255 128.28326 32329 ft 443 kts 297°
2026-05-09 22:50 -25.89164 128.22373 32322 ft 440 kts 297°
2026-05-09 22:50 -25.86131 128.16540 32331 ft 439 kts 297°
2026-05-09 22:51 -25.83079 128.10676 32324 ft 438 kts 297°
2026-05-09 22:51 -25.80026 128.04818 32326 ft 439 kts 297°
2026-05-09 22:52 -25.77017 127.99053 32315 ft 438 kts 296°
2026-05-09 22:52 -25.73965 127.93213 32326 ft 437 kts 296°
2026-05-09 22:53 -25.70910 127.87373 32319 ft 438 kts 296°
2026-05-09 22:53 -25.67851 127.81533 32321 ft 438 kts 296°
2026-05-09 22:54 -25.64786 127.75691 32318 ft 439 kts 296°
2026-05-09 22:54 -25.61722 127.69859 32315 ft 437 kts 296°
2026-05-09 22:55 -25.58660 127.64035 32309 ft 437 kts 296°
2026-05-09 22:55 -25.55598 127.58219 32317 ft 437 kts 296°
2026-05-09 22:56 -25.52534 127.52408 32315 ft 437 kts 296°
2026-05-09 22:56 -25.49467 127.46598 32324 ft 437 kts 296°
2026-05-09 22:57 -25.46391 127.40778 32290 ft 438 kts 296°
2026-05-09 22:57 -25.43316 127.34968 32309 ft 437 kts 296°
2026-05-09 22:58 -25.40241 127.29166 32316 ft 437 kts 296°
2026-05-09 22:58 -25.37169 127.23375 32324 ft 437 kts 296°
2026-05-09 22:59 -25.34089 127.17577 32306 ft 437 kts 296°
2026-05-09 22:59 -25.31005 127.11778 32306 ft 438 kts 296°
2026-05-09 23:00 -25.27917 127.05978 32308 ft 438 kts 296°
2026-05-09 23:00 -25.24846 127.00218 32313 ft 438 kts 296°
2026-05-09 23:01 -25.21798 126.94508 32304 ft 438 kts 296°
2026-05-09 23:01 -25.18696 126.88706 32304 ft 439 kts 296°
2026-05-09 23:02 -25.15589 126.82900 32309 ft 439 kts 296°
2026-05-09 23:02 -25.12484 126.77106 32297 ft 439 kts 296°
2026-05-09 23:03 -25.09375 126.71311 32298 ft 439 kts 296°
2026-05-09 23:03 -25.06262 126.65515 32300 ft 439 kts 296°
2026-05-09 23:04 -25.03145 126.59718 32305 ft 440 kts 296°
2026-05-09 23:04 -25.00022 126.53920 32297 ft 440 kts 296°
2026-05-09 23:05 -24.96902 126.48132 32309 ft 440 kts 296°
2026-05-09 23:05 -24.93773 126.42335 32307 ft 440 kts 296°
2026-05-09 23:06 -24.90656 126.36567 32291 ft 441 kts 296°
2026-05-09 23:06 -24.87492 126.30721 32288 ft 442 kts 296°
2026-05-09 23:07 -24.84339 126.24901 32289 ft 443 kts 296°
2026-05-09 23:07 -24.81200 126.19114 32281 ft 443 kts 296°
2026-05-09 23:08 -24.78033 126.13282 32286 ft 444 kts 296°
2026-05-09 23:08 -24.74859 126.07446 32290 ft 445 kts 296°
2026-05-09 23:09 -24.71678 126.01603 32292 ft 445 kts 296°
2026-05-09 23:09 -24.68540 125.95846 32288 ft 446 kts 296°
2026-05-09 23:10 -24.65352 125.90006 32253 ft 446 kts 297°
2026-05-09 23:10 -24.62161 125.84166 32284 ft 446 kts 296°
2026-05-09 23:11 -24.58966 125.78326 32284 ft 446 kts 297°
2026-05-09 23:11 -24.55767 125.72486 32286 ft 447 kts 296°
2026-05-09 23:12 -24.52560 125.66636 32286 ft 447 kts 296°
2026-05-09 23:12 -24.49343 125.60778 32285 ft 448 kts 297°
2026-05-09 23:13 -24.46120 125.54915 32275 ft 448 kts 297°
2026-05-09 23:13 -24.42918 125.49098 32273 ft 448 kts 297°
2026-05-09 23:14 -24.39670 125.43205 32278 ft 448 kts 297°
2026-05-09 23:14 -24.36465 125.37396 32278 ft 449 kts 297°
2026-05-09 23:15 -24.33231 125.31541 32276 ft 449 kts 297°
2026-05-09 23:15 -24.29994 125.25688 32264 ft 449 kts 297°
2026-05-09 23:16 -24.26757 125.19843 32269 ft 448 kts 297°
2026-05-09 23:16 -24.23518 125.14000 32265 ft 449 kts 297°
2026-05-09 23:17 -24.20275 125.08158 32280 ft 449 kts 297°
2026-05-09 23:17 -24.17029 125.02316 32267 ft 449 kts 297°
2026-05-09 23:18 -24.13832 124.96570 32268 ft 450 kts 297°
2026-05-09 23:18 -24.10576 124.90725 32271 ft 450 kts 297°
2026-05-09 23:19 -24.07315 124.84878 32271 ft 450 kts 297°
2026-05-09 23:19 -24.04048 124.79027 32264 ft 451 kts 297°
2026-05-09 23:20 -24.00798 124.73215 32268 ft 451 kts 297°
2026-05-09 23:21 -23.90967 124.55670 32259 ft 451 kts 297°
2026-05-09 23:22 -23.87689 124.49834 32266 ft 451 kts 297°
2026-05-09 23:22 -23.84405 124.43995 32261 ft 451 kts 297°
2026-05-09 23:23 -23.81118 124.38155 32264 ft 451 kts 297°
2026-05-09 23:23 -23.78381 124.33299 32264 ft 452 kts 297°
2026-05-09 23:24 -23.75087 124.27461 32253 ft 451 kts 297°
2026-05-09 23:24 -23.71798 124.21638 32261 ft 451 kts 297°
2026-05-09 23:25 -23.68502 124.15810 32262 ft 451 kts 297°
2026-05-09 23:25 -23.65202 124.09981 32269 ft 452 kts 297°
2026-05-09 23:26 -23.61896 124.04148 32269 ft 452 kts 297°
2026-05-09 23:26 -23.58636 123.98403 32264 ft 453 kts 297°
2026-05-09 23:27 -23.55320 123.92565 32261 ft 453 kts 297°
2026-05-09 23:27 -23.51998 123.86724 32265 ft 453 kts 297°
2026-05-09 23:28 -23.48670 123.80883 32262 ft 454 kts 297°
2026-05-09 23:28 -23.45340 123.75049 32260 ft 454 kts 297°
2026-05-09 23:29 -23.42006 123.69209 32260 ft 454 kts 297°
2026-05-09 23:29 -23.38669 123.63371 32249 ft 454 kts 297°
2026-05-09 23:30 -23.35332 123.57539 32254 ft 454 kts 297°
2026-05-09 23:30 -23.31993 123.51710 32253 ft 454 kts 297°
2026-05-09 23:31 -23.28651 123.45882 32255 ft 454 kts 297°
2026-05-09 23:31 -23.25306 123.40057 32251 ft 454 kts 297°
2026-05-09 23:32 -23.21960 123.34236 32250 ft 454 kts 297°
2026-05-09 23:32 -23.18636 123.28460 32243 ft 453 kts 298°
2026-05-09 23:33 -23.15273 123.22622 32245 ft 453 kts 298°
2026-05-09 23:33 -23.11927 123.16821 32247 ft 453 kts 298°
2026-05-09 23:34 -23.08579 123.11023 32248 ft 453 kts 298°
2026-05-09 23:34 -23.05249 123.05262 32248 ft 454 kts 298°
2026-05-09 23:35 -23.01943 122.99550 32222 ft 454 kts 298°
2026-05-09 23:35 -22.98590 122.93763 32239 ft 453 kts 298°
2026-05-09 23:36 -22.95234 122.87978 32248 ft 453 kts 298°
2026-05-09 23:36 -22.91877 122.82196 32251 ft 453 kts 298°
2026-05-09 23:37 -22.88520 122.76421 32248 ft 453 kts 298°
2026-05-09 23:37 -22.85156 122.70641 32248 ft 453 kts 298°
2026-05-09 23:38 -22.81789 122.64862 32240 ft 453 kts 298°
2026-05-09 23:38 -22.78421 122.59087 32246 ft 453 kts 298°
2026-05-09 23:39 -22.75052 122.53318 32226 ft 453 kts 298°
2026-05-09 23:39 -22.71683 122.47555 32249 ft 453 kts 298°
2026-05-09 23:40 -22.68313 122.41796 32249 ft 452 kts 298°
2026-05-09 23:40 -22.64941 122.36041 32246 ft 452 kts 298°
2026-05-09 23:41 -22.61573 122.30297 32228 ft 452 kts 297°
2026-05-09 23:41 -22.58202 122.24556 32240 ft 452 kts 298°
2026-05-09 23:42 -22.54831 122.18822 32236 ft 451 kts 298°
2026-05-09 23:42 -22.51459 122.13090 32241 ft 452 kts 298°
2026-05-09 23:43 -22.48085 122.07361 32247 ft 452 kts 298°
2026-05-09 23:43 -22.44729 122.01670 32240 ft 452 kts 298°
2026-05-09 23:44 -22.41401 121.96030 32229 ft 452 kts 297°
2026-05-09 23:44 -22.38019 121.90307 32231 ft 452 kts 297°
2026-05-09 23:45 -22.32947 121.81739 32238 ft 451 kts 297°
2026-05-09 23:45 -22.29555 121.76030 32229 ft 452 kts 297°
2026-05-09 23:46 -22.26162 121.70324 32234 ft 451 kts 297°
2026-05-09 23:46 -22.22769 121.64621 32229 ft 451 kts 297°
2026-05-09 23:47 -22.19376 121.58924 32216 ft 451 kts 297°
2026-05-09 23:47 -22.15987 121.53237 32222 ft 450 kts 297°
2026-05-09 23:48 -22.12598 121.47557 32226 ft 450 kts 297°
2026-05-09 23:49 -22.07511 121.39042 32231 ft 451 kts 297°
2026-05-09 23:49 -22.04108 121.33355 32217 ft 452 kts 297°
2026-05-09 23:50 -22.00700 121.27665 32223 ft 451 kts 297°
2026-05-09 23:50 -21.97301 121.21997 32220 ft 450 kts 297°
2026-05-09 23:51 -21.93901 121.16333 32205 ft 450 kts 297°
2026-05-09 23:51 -21.90526 121.10715 32217 ft 449 kts 297°
2026-05-09 23:52 -21.87128 121.05065 32209 ft 449 kts 297°
2026-05-09 23:52 -21.83785 120.99513 32220 ft 450 kts 297°
2026-05-09 23:53 -21.80382 120.93866 32182 ft 450 kts 297°
2026-05-09 23:53 -21.76981 120.88230 32203 ft 449 kts 296°
2026-05-09 23:54 -21.73582 120.82602 32211 ft 448 kts 297°
2026-05-09 23:54 -21.70183 120.76980 32215 ft 448 kts 297°
2026-05-09 23:55 -21.66784 120.71364 32214 ft 448 kts 297°
2026-05-09 23:55 -21.63383 120.65750 32213 ft 448 kts 297°
2026-05-09 23:56 -21.59981 120.60138 32212 ft 448 kts 297°
2026-05-09 23:56 -21.56573 120.54525 32211 ft 449 kts 297°
2026-05-09 23:57 -21.53165 120.48916 32207 ft 449 kts 297°
2026-05-09 23:57 -21.49751 120.43303 32210 ft 449 kts 297°
2026-05-09 23:58 -21.46333 120.37691 32200 ft 449 kts 297°
2026-05-09 23:58 -21.42908 120.32072 32202 ft 450 kts 297°
2026-05-09 23:59 -21.39477 120.26451 32204 ft 450 kts 297°
2026-05-09 23:59 -21.36048 120.20834 32186 ft 449 kts 296°
2026-05-10 00:00 -21.33202 120.16179 32191 ft 449 kts 296°
2026-05-10 00:00 -21.29202 120.09643 32185 ft 447 kts 296°
2026-05-10 00:01 -21.25815 120.04115 32192 ft 447 kts 296°
2026-05-10 00:01 -21.22457 119.98639 32191 ft 446 kts 296°
2026-05-10 00:02 -21.19046 119.93081 32191 ft 446 kts 296°
2026-05-10 00:02 -21.15631 119.87524 32178 ft 446 kts 296°
2026-05-10 00:03 -21.12221 119.81979 32167 ft 445 kts 296°
2026-05-10 00:03 -21.08814 119.76446 32186 ft 445 kts 296°
2026-05-10 00:04 -21.05409 119.70920 32177 ft 444 kts 296°
2026-05-10 00:04 -21.02006 119.65404 32186 ft 444 kts 296°
2026-05-10 00:05 -20.98610 119.59903 32178 ft 444 kts 296°
2026-05-10 00:05 -20.95202 119.54388 32175 ft 444 kts 296°
2026-05-10 00:06 -20.91793 119.48879 32166 ft 444 kts 296°
2026-05-10 00:06 -20.88386 119.43378 32170 ft 443 kts 296°
2026-05-10 00:07 -20.84979 119.37881 32166 ft 443 kts 296°
2026-05-10 00:07 -20.81573 119.32392 32169 ft 443 kts 296°
2026-05-10 00:08 -20.78168 119.26910 32169 ft 442 kts 296°
2026-05-10 00:08 -20.74763 119.21432 32160 ft 442 kts 295°
2026-05-10 00:09 -20.71361 119.15965 32151 ft 442 kts 295°
2026-05-10 00:09 -20.68532 119.11423 32157 ft 442 kts 295°
2026-05-10 00:10 -20.64578 119.05080 32162 ft 441 kts 295°
2026-05-10 00:10 -20.61226 118.99708 32162 ft 441 kts 295°
2026-05-10 00:11 -20.57819 118.94253 32152 ft 442 kts 295°
2026-05-10 00:11 -20.54964 118.89685 32157 ft 442 kts 295°
2026-05-10 00:12 -20.51570 118.84261 32155 ft 443 kts 295°
2026-05-10 00:12 -20.48149 118.78798 32138 ft 442 kts 295°
2026-05-10 00:13 -20.44729 118.73343 32142 ft 442 kts 295°
2026-05-10 00:13 -20.41309 118.67889 32152 ft 442 kts 295°
2026-05-10 00:14 -20.37895 118.62430 32124 ft 441 kts 294°
2026-05-10 00:14 -20.34833 118.56811 32130 ft 438 kts 291°
2026-05-10 00:15 -20.31838 118.51154 32134 ft 439 kts 291°
2026-05-10 00:15 -20.28832 118.45494 32136 ft 439 kts 291°
2026-05-10 00:16 -20.25816 118.39841 32131 ft 439 kts 291°
2026-05-10 00:16 -20.22792 118.34185 32130 ft 440 kts 291°
2026-05-10 00:17 -20.19762 118.28524 32129 ft 440 kts 291°
2026-05-10 00:17 -20.16726 118.22857 32146 ft 441 kts 291°
2026-05-10 00:18 -20.13685 118.17186 32144 ft 441 kts 291°
2026-05-10 00:18 -20.10641 118.11516 32143 ft 441 kts 291°
2026-05-10 00:19 -20.07595 118.05848 32112 ft 441 kts 291°
2026-05-10 00:19 -20.04548 118.00184 32109 ft 441 kts 291°
2026-05-10 00:20 -20.01550 117.94614 32124 ft 441 kts 291°
2026-05-10 00:20 -19.98499 117.88953 32130 ft 442 kts 291°
2026-05-10 00:21 -19.95460 117.83319 32128 ft 442 kts 291°
2026-05-10 00:21 -19.92395 117.77642 32129 ft 443 kts 291°
2026-05-10 00:22 -19.89326 117.71963 32125 ft 443 kts 291°
2026-05-10 00:22 -19.86253 117.66285 32122 ft 443 kts 291°
2026-05-10 00:23 -19.83179 117.60608 32121 ft 443 kts 291°
2026-05-10 00:23 -19.80107 117.54941 32118 ft 443 kts 291°
2026-05-10 00:24 -19.77031 117.49271 32113 ft 443 kts 291°
2026-05-10 00:24 -19.73950 117.43597 32110 ft 444 kts 291°
2026-05-10 00:25 -19.70863 117.37917 32116 ft 444 kts 291°
2026-05-10 00:25 -19.67769 117.32232 32110 ft 445 kts 291°
2026-05-10 00:26 -19.64669 117.26540 32109 ft 446 kts 291°
2026-05-10 00:26 -19.61564 117.20845 32109 ft 446 kts 291°
2026-05-10 00:27 -19.58476 117.15188 32089 ft 446 kts 292°
2026-05-10 00:27 -19.55347 117.09460 32098 ft 447 kts 292°
2026-05-10 00:28 -19.52230 117.03758 32108 ft 447 kts 292°
2026-05-10 00:28 -19.49174 116.98174 32104 ft 448 kts 292°
2026-05-10 00:29 -19.46043 116.92459 32104 ft 449 kts 292°
2026-05-10 00:29 -19.42908 116.86741 32100 ft 449 kts 292°
2026-05-10 00:30 -19.39769 116.81023 32100 ft 449 kts 292°
2026-05-10 00:30 -19.36628 116.75305 32105 ft 449 kts 292°
2026-05-10 00:31 -19.33483 116.69587 32099 ft 449 kts 292°
2026-05-10 00:31 -19.30340 116.63876 32099 ft 449 kts 292°
2026-05-10 00:32 -19.27191 116.58161 32098 ft 449 kts 292°
2026-05-10 00:32 -19.24040 116.52446 32092 ft 449 kts 292°
2026-05-10 00:33 -19.20888 116.46734 32090 ft 449 kts 292°
2026-05-10 00:33 -19.17733 116.41023 32093 ft 450 kts 292°
2026-05-10 00:34 -19.14577 116.35313 32098 ft 450 kts 292°
2026-05-10 00:34 -19.11416 116.29605 32065 ft 450 kts 292°
2026-05-10 00:35 -19.08246 116.23899 32086 ft 450 kts 292°
2026-05-10 00:35 -19.05074 116.18193 32092 ft 451 kts 292°
2026-05-10 00:36 -19.01892 116.12473 32086 ft 452 kts 292°
2026-05-10 00:36 -18.98709 116.06754 32088 ft 452 kts 292°
2026-05-10 00:37 -18.95518 116.01028 32091 ft 452 kts 292°
2026-05-10 00:37 -18.92375 115.95391 32084 ft 452 kts 292°
2026-05-10 00:38 -18.89182 115.89670 32078 ft 452 kts 293°
2026-05-10 00:38 -18.85988 115.83954 32074 ft 452 kts 293°
2026-05-10 00:39 -18.82812 115.78274 32078 ft 453 kts 293°
2026-05-10 00:39 -18.79611 115.72554 32075 ft 453 kts 293°
2026-05-10 00:40 -18.76400 115.66821 32072 ft 454 kts 293°
2026-05-10 00:40 -18.73183 115.61085 32091 ft 454 kts 293°
2026-05-10 00:41 -18.69962 115.55346 32092 ft 454 kts 293°
2026-05-10 00:41 -18.66738 115.49609 32073 ft 455 kts 293°
2026-05-10 00:42 -18.61902 115.41010 32065 ft 454 kts 294°
2026-05-10 00:42 -18.58675 115.35279 32072 ft 455 kts 294°
2026-05-10 00:43 -18.55443 115.29542 32070 ft 456 kts 294°
2026-05-10 00:43 -18.52206 115.23805 32074 ft 456 kts 294°
2026-05-10 00:44 -18.48958 115.18052 32076 ft 457 kts 294°
2026-05-10 00:44 -18.45704 115.12295 32078 ft 458 kts 294°
2026-05-10 00:45 -18.42446 115.06536 32070 ft 458 kts 294°
2026-05-10 00:45 -18.39186 115.00778 32073 ft 458 kts 294°
2026-05-10 00:46 -18.35976 114.95114 32067 ft 457 kts 294°
2026-05-10 00:46 -18.32713 114.89359 32073 ft 458 kts 294°
2026-05-10 00:47 -18.29443 114.83600 32075 ft 459 kts 294°
2026-05-10 00:47 -18.26172 114.77843 32074 ft 459 kts 294°
2026-05-10 00:48 -18.22892 114.72076 32072 ft 459 kts 294°
2026-05-10 00:48 -18.19631 114.66347 32070 ft 459 kts 294°
2026-05-10 00:49 -18.16346 114.60581 32072 ft 459 kts 294°
2026-05-10 00:49 -18.13059 114.54818 32046 ft 459 kts 294°
2026-05-10 00:50 -18.09771 114.49058 32059 ft 460 kts 295°
2026-05-10 00:50 -18.06480 114.43296 32068 ft 460 kts 295°
2026-05-10 00:51 -18.03186 114.37535 32069 ft 461 kts 295°
2026-05-10 00:51 -17.99885 114.31768 32065 ft 461 kts 295°
2026-05-10 00:52 -17.96576 114.25990 32065 ft 462 kts 295°
2026-05-10 00:52 -17.93262 114.20211 32064 ft 462 kts 295°
2026-05-10 00:53 -17.89945 114.14431 32065 ft 462 kts 295°
2026-05-10 00:53 -17.86627 114.08654 32051 ft 462 kts 295°
2026-05-10 00:54 -17.83306 114.02877 32072 ft 462 kts 295°
2026-05-10 00:54 -17.80032 113.97185 32066 ft 463 kts 295°
2026-05-10 00:55 -17.76700 113.91400 32049 ft 463 kts 295°
2026-05-10 00:55 -17.73368 113.85619 32070 ft 464 kts 295°
2026-05-10 00:56 -17.70028 113.79830 32063 ft 464 kts 295°
2026-05-10 00:56 -17.66709 113.74082 32043 ft 464 kts 295°
2026-05-10 00:57 -17.63367 113.68299 32065 ft 464 kts 295°
2026-05-10 00:57 -17.60022 113.62516 32050 ft 464 kts 295°
2026-05-10 00:58 -17.56672 113.56727 32060 ft 465 kts 295°
2026-05-10 00:58 -17.53313 113.50929 32064 ft 466 kts 295°
2026-05-10 00:59 -17.49948 113.45127 32063 ft 467 kts 295°
2026-05-10 00:59 -17.46573 113.39312 32063 ft 467 kts 296°
2026-05-10 01:00 -17.43194 113.33496 32065 ft 467 kts 296°
2026-05-10 01:00 -17.40383 113.28663 32064 ft 467 kts 296°
2026-05-10 01:01 -17.37004 113.22855 32059 ft 467 kts 296°
2026-05-10 01:01 -17.33624 113.17051 32051 ft 467 kts 296°
2026-05-10 01:02 -17.30247 113.11257 32057 ft 467 kts 296°
2026-05-10 01:02 -17.26862 113.05455 32058 ft 467 kts 296°
2026-05-10 01:03 -17.23524 112.99737 32058 ft 468 kts 296°
2026-05-10 01:03 -17.20128 112.93926 32058 ft 468 kts 296°
2026-05-10 01:04 -17.16728 112.88112 32057 ft 469 kts 296°
2026-05-10 01:04 -17.13325 112.82299 32057 ft 469 kts 296°
2026-05-10 01:05 -17.09920 112.76487 32053 ft 469 kts 296°
2026-05-10 01:05 -17.06513 112.70676 32038 ft 469 kts 296°
2026-05-10 01:06 -17.03103 112.64865 32054 ft 470 kts 296°
2026-05-10 01:06 -16.99685 112.59044 32053 ft 471 kts 296°
2026-05-10 01:07 -16.96255 112.53209 32052 ft 472 kts 297°
2026-05-10 01:07 -16.92819 112.47369 32052 ft 472 kts 297°
2026-05-10 01:08 -16.89380 112.41529 32052 ft 472 kts 297°
2026-05-10 01:08 -16.85963 112.35731 32046 ft 472 kts 297°
2026-05-10 01:09 -16.82524 112.29900 32051 ft 471 kts 297°
2026-05-10 01:09 -16.79087 112.24075 32051 ft 471 kts 297°
2026-05-10 01:10 -16.75653 112.18263 32048 ft 471 kts 297°
2026-05-10 01:10 -16.72190 112.12414 32049 ft 471 kts 297°
2026-05-10 01:11 -16.68772 112.06645 32049 ft 470 kts 297°
2026-05-10 01:11 -16.65331 112.00839 32045 ft 471 kts 297°
2026-05-10 01:12 -16.61942 111.95124 32047 ft 471 kts 297°
2026-05-10 01:12 -16.58497 111.89321 32046 ft 471 kts 297°
2026-05-10 01:13 -16.55051 111.83520 32046 ft 471 kts 297°
2026-05-10 01:13 -16.51602 111.77719 32039 ft 471 kts 297°
2026-05-10 01:14 -16.48151 111.71917 32045 ft 472 kts 297°
2026-05-10 01:14 -16.44686 111.66099 32044 ft 473 kts 297°
2026-05-10 01:15 -16.41214 111.60273 32039 ft 473 kts 297°
2026-05-10 01:15 -16.37736 111.54444 32038 ft 474 kts 297°
2026-05-10 01:16 -16.34256 111.48614 32037 ft 474 kts 297°
2026-05-10 01:16 -16.30774 111.42787 32038 ft 474 kts 297°
2026-05-10 01:17 -16.27293 111.36966 32036 ft 473 kts 297°
2026-05-10 01:17 -16.23812 111.31148 32033 ft 473 kts 297°
2026-05-10 01:18 -16.20329 111.25334 32031 ft 473 kts 297°
2026-05-10 01:18 -16.16847 111.19525 32029 ft 474 kts 297°
2026-05-10 01:19 -16.13358 111.13707 32031 ft 474 kts 297°
2026-05-10 01:19 -16.09888 111.07927 32032 ft 474 kts 297°
2026-05-10 01:20 -16.06391 111.02107 32025 ft 475 kts 297°
2026-05-10 01:20 -16.02946 110.96379 32030 ft 475 kts 297°
2026-05-10 01:21 -15.99452 110.90574 32024 ft 475 kts 297°
2026-05-10 01:21 -15.95949 110.84757 32014 ft 475 kts 298°
2026-05-10 01:22 -15.92447 110.78947 32024 ft 475 kts 298°
2026-05-10 01:22 -15.88937 110.73128 32027 ft 475 kts 298°
2026-05-10 01:23 -15.85421 110.67305 32025 ft 476 kts 298°
2026-05-10 01:23 -15.81902 110.61479 32024 ft 476 kts 298°
2026-05-10 01:24 -15.78378 110.55653 32017 ft 476 kts 298°
2026-05-10 01:24 -15.74854 110.49828 32017 ft 476 kts 298°
2026-05-10 01:25 -15.71329 110.44007 32016 ft 476 kts 298°
2026-05-10 01:25 -15.67803 110.38190 32012 ft 476 kts 298°
2026-05-10 01:26 -15.64278 110.32378 32016 ft 476 kts 298°
2026-05-10 01:26 -15.60756 110.26575 32015 ft 476 kts 298°
2026-05-10 01:27 -15.57227 110.20766 32017 ft 476 kts 298°
2026-05-10 01:27 -15.53696 110.14956 32015 ft 476 kts 298°
2026-05-10 01:28 -15.50189 110.09184 32010 ft 476 kts 298°
2026-05-10 01:28 -15.46671 110.03366 32010 ft 476 kts 298°
2026-05-10 01:29 -15.43210 109.97639 32013 ft 476 kts 298°
2026-05-10 01:29 -15.39691 109.91823 32000 ft 476 kts 298°
2026-05-10 01:30 -15.36175 109.86018 32023 ft 476 kts 298°
2026-05-10 01:30 -15.32652 109.80208 32022 ft 476 kts 298°
2026-05-10 01:31 -15.29127 109.74398 32002 ft 476 kts 298°
2026-05-10 01:31 -15.25600 109.68588 32005 ft 476 kts 298°
2026-05-10 01:32 -15.22070 109.62779 32017 ft 476 kts 298°
2026-05-10 01:32 -15.18539 109.56972 32018 ft 476 kts 298°
2026-05-10 01:33 -15.15007 109.51168 32017 ft 476 kts 298°
2026-05-10 01:33 -15.11474 109.45366 31990 ft 476 kts 298°
2026-05-10 01:34 -15.07942 109.39572 32011 ft 477 kts 298°
2026-05-10 01:34 -15.04402 109.33767 32003 ft 477 kts 298°
2026-05-10 01:35 -15.00857 109.27960 32003 ft 477 kts 298°
2026-05-10 01:35 -14.97313 109.22158 32002 ft 478 kts 298°
2026-05-10 01:36 -14.93762 109.16349 32003 ft 478 kts 298°
2026-05-10 01:36 -14.90209 109.10541 32004 ft 478 kts 298°
2026-05-10 01:37 -14.86679 109.04775 31997 ft 478 kts 298°
2026-05-10 01:37 -14.83181 108.99065 32000 ft 477 kts 298°
2026-05-10 01:38 -14.79630 108.93274 31993 ft 477 kts 299°
2026-05-10 01:38 -14.76073 108.87476 31995 ft 478 kts 299°
2026-05-10 01:39 -14.72511 108.81674 31999 ft 478 kts 299°
2026-05-10 01:39 -14.68944 108.75869 31993 ft 479 kts 299°
2026-05-10 01:40 -14.65375 108.70064 31991 ft 479 kts 299°
2026-05-10 01:40 -14.61805 108.64261 31992 ft 479 kts 299°
2026-05-10 01:41 -14.58234 108.58461 31989 ft 478 kts 299°
2026-05-10 01:41 -14.54663 108.52665 31988 ft 478 kts 299°
2026-05-10 01:42 -14.51095 108.46878 31982 ft 478 kts 299°
2026-05-10 01:42 -14.47511 108.41091 31990 ft 479 kts 300°
2026-05-10 01:43 -14.43905 108.35310 31987 ft 479 kts 300°
2026-05-10 01:43 -14.40293 108.29526 31987 ft 480 kts 300°
2026-05-10 01:44 -14.36704 108.23777 31984 ft 480 kts 300°
2026-05-10 01:44 -14.33090 108.17988 31983 ft 480 kts 300°
2026-05-10 01:45 -14.29475 108.12200 31984 ft 480 kts 300°
2026-05-10 01:45 -14.25859 108.06415 31983 ft 480 kts 300°
2026-05-10 01:46 -14.22246 108.00640 31978 ft 480 kts 300°
2026-05-10 01:46 -14.18684 107.94949 31978 ft 480 kts 300°
2026-05-10 01:47 -14.15062 107.89168 31982 ft 480 kts 300°
2026-05-10 01:47 -14.11436 107.83383 31978 ft 481 kts 300°
2026-05-10 01:48 -14.07806 107.77596 31978 ft 481 kts 300°
2026-05-10 01:48 -14.04788 107.72789 31981 ft 481 kts 300°
2026-05-10 01:49 -13.99339 107.64116 31978 ft 481 kts 300°
2026-05-10 01:50 -13.95704 107.58335 31974 ft 481 kts 300°
2026-05-10 01:50 -13.92070 107.52559 31975 ft 480 kts 300°
2026-05-10 01:51 -13.88436 107.46788 31975 ft 480 kts 300°
2026-05-10 01:51 -13.84803 107.41021 31972 ft 480 kts 300°
2026-05-10 01:52 -13.81170 107.35258 31976 ft 480 kts 300°
2026-05-10 01:52 -13.77537 107.29501 31975 ft 480 kts 300°
2026-05-10 01:53 -13.73909 107.23754 31968 ft 479 kts 300°
2026-05-10 01:53 -13.70277 107.18006 31970 ft 479 kts 300°
2026-05-10 01:54 -13.66645 107.12260 31970 ft 479 kts 300°
2026-05-10 01:54 -13.63012 107.06517 31970 ft 479 kts 300°
2026-05-10 01:55 -13.59377 107.00776 31965 ft 479 kts 301°
2026-05-10 01:55 -13.55795 106.95122 31972 ft 479 kts 301°
2026-05-10 01:56 -13.52153 106.89376 31970 ft 480 kts 301°
2026-05-10 01:56 -13.48506 106.83627 31967 ft 480 kts 301°
2026-05-10 01:57 -13.44856 106.77877 31963 ft 480 kts 301°
2026-05-10 01:57 -13.41208 106.72133 31965 ft 481 kts 301°
2026-05-10 01:58 -13.37555 106.66385 31968 ft 480 kts 301°
2026-05-10 01:58 -13.33902 106.60643 31966 ft 480 kts 301°
2026-05-10 01:59 -13.30252 106.54907 31964 ft 480 kts 301°
2026-05-10 01:59 -13.26623 106.49208 31964 ft 480 kts 301°
2026-05-10 02:00 -13.22965 106.43467 31966 ft 481 kts 301°
2026-05-10 02:00 -13.19300 106.37719 31968 ft 482 kts 301°
2026-05-10 02:01 -13.15604 106.31928 31965 ft 482 kts 301°
2026-05-10 02:01 -13.11960 106.26221 31964 ft 482 kts 301°
2026-05-10 02:02 -13.08288 106.20473 31964 ft 481 kts 301°
2026-05-10 02:02 -13.04618 106.14734 31964 ft 481 kts 301°
2026-05-10 02:03 -13.00951 106.09001 31963 ft 480 kts 301°
2026-05-10 02:03 -12.97289 106.03280 31955 ft 481 kts 301°
2026-05-10 02:04 -12.93681 105.97647 31967 ft 481 kts 301°
2026-05-10 02:04 -12.90002 105.91906 31963 ft 482 kts 301°
2026-05-10 02:05 -12.86320 105.86166 31956 ft 483 kts 301°
2026-05-10 02:05 -12.82630 105.80417 31961 ft 483 kts 302°
2026-05-10 02:06 -12.78938 105.74667 31962 ft 483 kts 302°
2026-05-10 02:06 -12.75246 105.68921 31961 ft 483 kts 302°
2026-05-10 02:07 -12.71555 105.63180 31962 ft 482 kts 302°
2026-05-10 02:07 -12.66022 105.54583 31953 ft 482 kts 302°
2026-05-10 02:08 -12.62334 105.48854 31961 ft 482 kts 302°
2026-05-10 02:08 -12.58641 105.43124 31956 ft 483 kts 302°
2026-05-10 02:09 -12.54942 105.37387 31962 ft 483 kts 302°
2026-05-10 02:09 -12.51239 105.31647 31958 ft 484 kts 302°
2026-05-10 02:10 -12.47525 105.25893 31965 ft 484 kts 302°
2026-05-10 02:10 -12.43812 105.20145 31954 ft 484 kts 302°
2026-05-10 02:11 -12.40103 105.14408 31957 ft 483 kts 302°
2026-05-10 02:11 -12.36401 105.08684 31960 ft 482 kts 302°
2026-05-10 02:12 -12.32705 105.02973 31943 ft 482 kts 302°
2026-05-10 02:12 -12.29064 104.97350 31952 ft 482 kts 302°
2026-05-10 02:13 -12.25358 104.91628 31962 ft 483 kts 302°
2026-05-10 02:13 -12.21646 104.85903 31956 ft 484 kts 302°
2026-05-10 02:14 -12.17949 104.80204 31953 ft 484 kts 302°
2026-05-10 02:14 -12.14225 104.74466 31958 ft 484 kts 302°
2026-05-10 02:15 -12.10478 104.68698 31949 ft 484 kts 302°
2026-05-10 02:15 -12.06787 104.63017 31955 ft 482 kts 302°
2026-05-10 02:16 -12.03078 104.57314 31951 ft 481 kts 302°
2026-05-10 02:16 -11.99380 104.51631 31948 ft 482 kts 302°
2026-05-10 02:17 -11.95670 104.45930 31959 ft 483 kts 302°
2026-05-10 02:17 -11.91944 104.40209 31947 ft 485 kts 302°
2026-05-10 02:18 -11.88202 104.34467 31955 ft 486 kts 302°
2026-05-10 02:18 -11.84449 104.28714 31950 ft 487 kts 302°
2026-05-10 02:19 -11.80696 104.22962 31947 ft 487 kts 302°
2026-05-10 02:19 -11.76948 104.17221 31956 ft 485 kts 302°
2026-05-10 02:20 -11.73211 104.11502 31944 ft 484 kts 302°
2026-05-10 02:20 -11.69487 104.05805 31951 ft 482 kts 302°
2026-05-10 02:21 -11.65762 104.00109 31953 ft 483 kts 302°
2026-05-10 02:21 -11.62087 103.94492 31946 ft 485 kts 302°
2026-05-10 02:22 -11.58332 103.88757 31948 ft 487 kts 302°
2026-05-10 02:22 -11.54558 103.82996 31957 ft 489 kts 302°
2026-05-10 02:23 -11.50777 103.77231 31955 ft 488 kts 302°
2026-05-10 02:23 -11.47007 103.71481 31943 ft 487 kts 302°
2026-05-10 02:24 -11.43249 103.65754 31954 ft 485 kts 302°
2026-05-10 02:24 -11.39505 103.60054 31939 ft 483 kts 302°
2026-05-10 02:25 -11.35771 103.54369 31945 ft 483 kts 303°
2026-05-10 02:25 -11.32034 103.48681 31958 ft 484 kts 302°
2026-05-10 02:26 -11.28283 103.42979 31943 ft 485 kts 303°
2026-05-10 02:26 -11.24522 103.37265 31949 ft 486 kts 303°
2026-05-10 02:27 -11.20750 103.31536 31947 ft 487 kts 303°
2026-05-10 02:27 -11.16978 103.25811 31944 ft 486 kts 302°
2026-05-10 02:28 -11.13214 103.20097 31951 ft 485 kts 302°
2026-05-10 02:28 -11.09457 103.14403 31952 ft 483 kts 302°
2026-05-10 02:29 -11.05716 103.08733 31942 ft 481 kts 302°
2026-05-10 02:29 -11.01987 103.03083 31940 ft 481 kts 303°
2026-05-10 02:30 -10.98306 102.97511 31948 ft 484 kts 303°
2026-05-10 02:30 -10.94567 102.91850 31936 ft 487 kts 303°
2026-05-10 02:31 -10.90778 102.86113 31952 ft 490 kts 303°
2026-05-10 02:31 -10.86973 102.80355 31943 ft 491 kts 303°
2026-05-10 02:32 -10.83182 102.74623 31937 ft 484 kts 302°
2026-05-10 02:32 -10.79423 102.68938 31941 ft 485 kts 303°
2026-05-10 02:33 -10.75654 102.63243 31943 ft 486 kts 303°
2026-05-10 02:33 -10.71886 102.57553 31937 ft 485 kts 302°
2026-05-10 02:34 -10.68118 102.51863 31928 ft 485 kts 303°
2026-05-10 02:34 -10.64981 102.47130 31945 ft 485 kts 303°
2026-05-10 02:35 -10.61206 102.41439 31937 ft 485 kts 303°
2026-05-10 02:35 -10.57429 102.35747 31934 ft 486 kts 303°
2026-05-10 02:36 -10.53642 102.30042 31943 ft 487 kts 303°
2026-05-10 02:36 -10.49857 102.24345 31947 ft 486 kts 303°
2026-05-10 02:37 -10.46082 102.18661 31930 ft 485 kts 303°
2026-05-10 02:37 -10.42313 102.12992 31945 ft 483 kts 303°
2026-05-10 02:38 -10.38556 102.07347 31932 ft 481 kts 303°
2026-05-10 02:38 -10.34807 102.01714 31939 ft 481 kts 303°
2026-05-10 02:39 -10.31104 101.96150 31938 ft 486 kts 303°
2026-05-10 02:39 -10.27311 101.90458 31939 ft 485 kts 303°
2026-05-10 02:40 -10.23532 101.84789 31938 ft 484 kts 303°
2026-05-10 02:40 -10.19760 101.79132 31934 ft 485 kts 304°
2026-05-10 02:41 -10.15971 101.73452 31944 ft 486 kts 303°
2026-05-10 02:41 -10.12175 101.67764 31931 ft 487 kts 304°
2026-05-10 02:42 -10.08371 101.62070 31940 ft 487 kts 304°
2026-05-10 02:42 -10.04570 101.56381 31935 ft 486 kts 303°
2026-05-10 02:43 -10.00784 101.50717 31928 ft 484 kts 303°
2026-05-10 02:43 -9.97038 101.45117 31932 ft 484 kts 304°
2026-05-10 02:44 -9.93245 101.39447 31934 ft 487 kts 304°
2026-05-10 02:44 -9.89438 101.33761 31937 ft 489 kts 304°
2026-05-10 02:45 -9.85607 101.28042 31931 ft 491 kts 304°
2026-05-10 02:45 -9.81767 101.22310 31934 ft 491 kts 304°
2026-05-10 02:46 -9.77924 101.16579 31929 ft 491 kts 304°
2026-05-10 02:46 -9.74097 101.10873 31918 ft 488 kts 304°
2026-05-10 02:47 -9.70283 101.05190 31934 ft 486 kts 304°
2026-05-10 02:47 -9.66540 100.99615 31917 ft 486 kts 304°
2026-05-10 02:48 -9.62744 100.93963 31925 ft 485 kts 304°
2026-05-10 02:48 -9.58950 100.88318 31919 ft 486 kts 304°
2026-05-10 02:49 -9.55135 100.82644 31936 ft 488 kts 304°
2026-05-10 02:49 -9.51305 100.76948 31927 ft 490 kts 304°
2026-05-10 02:50 -9.47458 100.71233 31921 ft 492 kts 304°
2026-05-10 02:50 -9.43599 100.65500 31929 ft 493 kts 304°
2026-05-10 02:51 -9.39734 100.59763 31928 ft 493 kts 304°
2026-05-10 02:51 -9.35880 100.54044 31919 ft 490 kts 304°
2026-05-10 02:52 -9.32064 100.48384 31919 ft 489 kts 304°
2026-05-10 02:52 -9.28209 100.42668 31923 ft 488 kts 305°
2026-05-10 02:53 -9.24377 100.36990 31924 ft 488 kts 305°
2026-05-10 02:53 -9.20540 100.31306 31929 ft 489 kts 305°
2026-05-10 02:54 -9.16717 100.25646 31921 ft 491 kts 304°
2026-05-10 02:54 -9.12858 100.19934 31928 ft 492 kts 304°
2026-05-10 02:55 -9.08992 100.14218 31924 ft 492 kts 304°
2026-05-10 02:55 -9.05129 100.08505 31916 ft 492 kts 304°
2026-05-10 02:56 -9.01272 100.02803 31919 ft 491 kts 304°
2026-05-10 02:56 -8.97484 99.97208 31922 ft 490 kts 304°
2026-05-10 02:57 -8.93638 99.91529 31910 ft 489 kts 304°
2026-05-10 02:57 -8.89797 99.85860 31915 ft 488 kts 304°
2026-05-10 02:58 -8.84047 99.77378 31919 ft 486 kts 304°
2026-05-10 02:59 -8.80222 99.71739 31910 ft 486 kts 304°
2026-05-10 02:59 -8.76395 99.66098 31913 ft 487 kts 304°
2026-05-10 03:00 -8.72558 99.60445 31927 ft 488 kts 304°
2026-05-10 03:00 -8.68713 99.54785 31912 ft 489 kts 304°
2026-05-10 03:01 -8.64862 99.49115 31920 ft 490 kts 304°
2026-05-10 03:01 -8.61001 99.43435 31921 ft 490 kts 304°
2026-05-10 03:02 -8.57141 99.37757 31918 ft 490 kts 304°
2026-05-10 03:02 -8.53287 99.32091 31909 ft 489 kts 304°
2026-05-10 03:03 -8.49433 99.26429 31908 ft 489 kts 304°
2026-05-10 03:03 -8.43684 99.17985 31909 ft 488 kts 304°
2026-05-10 03:04 -8.39840 99.12343 31912 ft 487 kts 304°
2026-05-10 03:04 -8.36004 99.06714 31905 ft 487 kts 304°
2026-05-10 03:05 -8.32161 99.01076 31916 ft 487 kts 304°
2026-05-10 03:05 -8.28376 98.95527 31908 ft 487 kts 304°
2026-05-10 03:06 -8.24532 98.89893 31904 ft 487 kts 304°
2026-05-10 03:06 -8.20680 98.84251 31912 ft 489 kts 305°
2026-05-10 03:07 -8.16819 98.78596 31911 ft 490 kts 305°
2026-05-10 03:07 -8.12958 98.72944 31907 ft 488 kts 305°
2026-05-10 03:08 -8.09112 98.67317 31905 ft 486 kts 304°
2026-05-10 03:08 -8.05285 98.61720 31902 ft 484 kts 305°
2026-05-10 03:09 -8.01468 98.56138 31908 ft 482 kts 305°
2026-05-10 03:09 -7.97668 98.50585 31902 ft 482 kts 305°
2026-05-10 03:10 -7.93860 98.45020 31906 ft 482 kts 305°
2026-05-10 03:10 -7.90047 98.39453 31900 ft 483 kts 305°
2026-05-10 03:11 -7.86216 98.33858 31910 ft 486 kts 305°
2026-05-10 03:11 -7.82363 98.28238 31899 ft 489 kts 305°
2026-05-10 03:12 -7.78490 98.22587 31912 ft 490 kts 305°
2026-05-10 03:12 -7.74607 98.16925 31903 ft 492 kts 305°
2026-05-10 03:13 -7.70709 98.11243 31905 ft 493 kts 305°
2026-05-10 03:13 -7.66816 98.05569 31900 ft 491 kts 305°
2026-05-10 03:14 -7.62956 97.99948 31899 ft 488 kts 305°
2026-05-10 03:14 -7.59145 97.94398 31900 ft 487 kts 306°
2026-05-10 03:15 -7.55290 97.88786 31907 ft 487 kts 306°
2026-05-10 03:15 -7.51435 97.83178 31899 ft 487 kts 306°
2026-05-10 03:16 -7.47573 97.77563 31892 ft 488 kts 305°
2026-05-10 03:16 -7.43698 97.71927 31902 ft 490 kts 305°
2026-05-10 03:17 -7.39807 97.66271 31896 ft 493 kts 306°
2026-05-10 03:17 -7.35926 97.60633 31896 ft 493 kts 306°
2026-05-10 03:18 -7.32014 97.54951 31887 ft 494 kts 305°
2026-05-10 03:18 -7.28099 97.49267 31898 ft 494 kts 306°
2026-05-10 03:19 -7.24181 97.43581 31899 ft 494 kts 306°
2026-05-10 03:19 -7.20266 97.37900 31889 ft 494 kts 306°
2026-05-10 03:20 -7.16357 97.32230 31893 ft 492 kts 306°
2026-05-10 03:20 -7.12459 97.26578 31887 ft 492 kts 305°
2026-05-10 03:21 -7.09216 97.21878 31898 ft 491 kts 306°
2026-05-10 03:21 -7.05319 97.16232 31890 ft 491 kts 306°
2026-05-10 03:22 -7.01423 97.10591 31897 ft 490 kts 306°
2026-05-10 03:22 -6.97538 97.04966 31895 ft 490 kts 306°
2026-05-10 03:23 -6.93705 96.99417 31887 ft 491 kts 306°
2026-05-10 03:23 -6.89809 96.93780 31894 ft 492 kts 306°
2026-05-10 03:24 -6.85903 96.88129 31895 ft 492 kts 306°
2026-05-10 03:24 -6.81991 96.82473 31894 ft 492 kts 306°
2026-05-10 03:25 -6.78077 96.76815 31880 ft 493 kts 306°
2026-05-10 03:25 -6.74151 96.71141 31894 ft 495 kts 306°
2026-05-10 03:26 -6.70212 96.65451 31893 ft 496 kts 306°
2026-05-10 03:26 -6.66263 96.59750 31891 ft 497 kts 306°
2026-05-10 03:27 -6.62311 96.54045 31889 ft 497 kts 306°
2026-05-10 03:27 -6.58365 96.48349 31885 ft 497 kts 306°
2026-05-10 03:28 -6.54415 96.42649 31884 ft 497 kts 307°
2026-05-10 03:28 -6.50489 96.36988 31889 ft 497 kts 306°
2026-05-10 03:29 -6.46533 96.31285 31886 ft 497 kts 306°
2026-05-10 03:29 -6.42574 96.25580 31891 ft 497 kts 307°
2026-05-10 03:30 -6.38610 96.19869 31890 ft 498 kts 306°
2026-05-10 03:30 -6.34641 96.14151 31889 ft 499 kts 306°
2026-05-10 03:31 -6.30665 96.08427 31887 ft 499 kts 306°
2026-05-10 03:31 -6.26693 96.02707 31888 ft 499 kts 306°
2026-05-10 03:32 -6.22775 95.97070 31887 ft 499 kts 306°
2026-05-10 03:32 -6.18800 95.91351 31887 ft 499 kts 306°
2026-05-10 03:33 -6.14828 95.85637 31888 ft 498 kts 306°
2026-05-10 03:33 -6.10861 95.79934 31888 ft 498 kts 306°
2026-05-10 03:34 -6.06891 95.74229 31890 ft 498 kts 306°
2026-05-10 03:34 -6.02920 95.68523 31884 ft 498 kts 306°
2026-05-10 03:35 -5.98955 95.62827 31886 ft 499 kts 306°
2026-05-10 03:35 -5.94977 95.57114 31885 ft 499 kts 306°
2026-05-10 03:36 -5.90995 95.51398 31887 ft 499 kts 307°
2026-05-10 03:36 -5.87011 95.45680 31888 ft 500 kts 307°
2026-05-10 03:37 -5.83024 95.39959 31885 ft 500 kts 306°
2026-05-10 03:37 -5.79040 95.34246 31885 ft 500 kts 306°
2026-05-10 03:38 -5.75053 95.28528 31886 ft 499 kts 306°
2026-05-10 03:38 -5.71069 95.22816 31884 ft 499 kts 306°
2026-05-10 03:39 -5.67113 95.17148 31881 ft 499 kts 306°
2026-05-10 03:39 -5.63130 95.11441 31883 ft 499 kts 306°
2026-05-10 03:40 -5.59145 95.05732 31883 ft 499 kts 306°
2026-05-10 03:40 -5.55156 95.00021 31882 ft 500 kts 306°
2026-05-10 03:41 -5.51227 94.94396 31882 ft 500 kts 306°
2026-05-10 03:41 -5.47239 94.88688 31883 ft 500 kts 306°
2026-05-10 03:42 -5.43245 94.82973 31882 ft 500 kts 306°
2026-05-10 03:42 -5.39248 94.77256 31882 ft 500 kts 306°
2026-05-10 03:43 -5.35251 94.71539 31886 ft 500 kts 306°
2026-05-10 03:43 -5.31253 94.65823 31882 ft 500 kts 306°
2026-05-10 03:44 -5.27256 94.60111 31882 ft 500 kts 306°
2026-05-10 03:44 -5.23263 94.54404 31879 ft 499 kts 306°
2026-05-10 03:45 -5.19271 94.48702 31880 ft 499 kts 306°
2026-05-10 03:45 -5.15284 94.43008 31882 ft 499 kts 307°
2026-05-10 03:46 -5.11294 94.37310 31879 ft 499 kts 307°
2026-05-10 03:46 -5.07304 94.31615 31880 ft 499 kts 307°
2026-05-10 03:47 -5.03340 94.25958 31882 ft 499 kts 307°
2026-05-10 03:47 -4.99357 94.20275 31879 ft 499 kts 307°
2026-05-10 03:48 -4.95364 94.14579 31879 ft 499 kts 307°
2026-05-10 03:48 -4.91369 94.08882 31881 ft 499 kts 307°
2026-05-10 03:49 -4.87372 94.03183 31879 ft 500 kts 307°
2026-05-10 03:49 -4.83440 93.97578 31880 ft 500 kts 307°
2026-05-10 03:50 -4.79441 93.91879 31880 ft 500 kts 307°
2026-05-10 03:50 -4.75441 93.86181 31879 ft 500 kts 307°
2026-05-10 03:51 -4.71442 93.80485 31885 ft 499 kts 307°
2026-05-10 03:51 -4.67443 93.74789 31879 ft 500 kts 307°
2026-05-10 03:52 -4.63442 93.69093 31880 ft 500 kts 307°
2026-05-10 03:52 -4.59440 93.63396 31879 ft 500 kts 307°
2026-05-10 03:53 -4.55437 93.57699 31878 ft 500 kts 307°
2026-05-10 03:53 -4.51433 93.52003 31881 ft 500 kts 307°
2026-05-10 03:54 -4.47421 93.46296 31880 ft 501 kts 307°
2026-05-10 03:54 -4.43405 93.40583 31880 ft 501 kts 307°
2026-05-10 03:55 -4.39385 93.34867 31880 ft 502 kts 307°
2026-05-10 03:55 -4.35389 93.29187 31880 ft 502 kts 307°
2026-05-10 03:56 -4.31367 93.23470 31879 ft 502 kts 307°
2026-05-10 03:56 -4.27345 93.17755 31879 ft 502 kts 307°
2026-05-10 03:57 -4.23325 93.12042 31882 ft 501 kts 307°
2026-05-10 03:57 -4.19310 93.06338 31883 ft 501 kts 307°
2026-05-10 03:58 -4.15289 93.00627 31881 ft 502 kts 307°
2026-05-10 03:58 -4.11327 92.95002 31883 ft 502 kts 307°
2026-05-10 03:59 -4.07297 92.89284 31882 ft 502 kts 307°
2026-05-10 03:59 -4.03265 92.83562 31883 ft 503 kts 307°
2026-05-10 04:00 -3.99237 92.77844 31885 ft 503 kts 307°
2026-05-10 04:00 -3.95203 92.72119 31886 ft 503 kts 307°
2026-05-10 04:01 -3.91168 92.66394 31882 ft 503 kts 307°
2026-05-10 04:01 -3.87137 92.60675 31882 ft 503 kts 307°
2026-05-10 04:02 -3.83101 92.54951 31882 ft 503 kts 307°
2026-05-10 04:03 -3.77046 92.46366 31881 ft 503 kts 307°
2026-05-10 04:03 -3.73008 92.40641 31883 ft 503 kts 307°
2026-05-10 04:04 -3.68996 92.34954 31882 ft 503 kts 307°
2026-05-10 04:04 -3.64956 92.29229 31882 ft 503 kts 307°
2026-05-10 04:05 -3.60916 92.23504 31881 ft 503 kts 307°
2026-05-10 04:05 -3.56880 92.17788 31883 ft 503 kts 307°
2026-05-10 04:06 -3.52841 92.12066 31883 ft 503 kts 307°
2026-05-10 04:06 -3.48801 92.06345 31882 ft 503 kts 307°
2026-05-10 04:07 -3.44762 92.00627 31882 ft 503 kts 307°
2026-05-10 04:07 -3.40786 91.94998 31882 ft 503 kts 307°
2026-05-10 04:08 -3.36747 91.89281 31882 ft 503 kts 307°
2026-05-10 04:08 -3.32708 91.83565 31880 ft 503 kts 307°
2026-05-10 04:09 -3.28667 91.77848 31882 ft 503 kts 307°
2026-05-10 04:09 -3.24630 91.72136 31882 ft 503 kts 307°
2026-05-10 04:10 -3.21269 91.67381 31878 ft 503 kts 307°
2026-05-10 04:10 -3.17226 91.61663 31883 ft 503 kts 307°
2026-05-10 04:11 -3.12528 91.55019 31884 ft 503 kts 307°
2026-05-10 04:11 -3.09137 91.50226 31880 ft 503 kts 307°
2026-05-10 04:12 -3.05090 91.44505 31882 ft 504 kts 307°
2026-05-10 04:12 -3.01044 91.38786 31879 ft 504 kts 307°
2026-05-10 04:13 -2.96993 91.33061 31880 ft 505 kts 307°
2026-05-10 04:13 -2.92962 91.27365 31880 ft 505 kts 307°
2026-05-10 04:14 -2.88901 91.21627 31882 ft 505 kts 307°
2026-05-10 04:14 -2.84840 91.15890 31882 ft 505 kts 307°
2026-05-10 04:15 -2.80778 91.10153 31881 ft 505 kts 307°
2026-05-10 04:15 -2.76716 91.04417 31882 ft 505 kts 307°
2026-05-10 04:16 -2.72722 90.98777 31884 ft 505 kts 307°
2026-05-10 04:16 -2.68634 90.93006 31882 ft 505 kts 307°
2026-05-10 04:17 -2.64574 90.87274 31881 ft 505 kts 307°
2026-05-10 04:17 -2.60539 90.81579 31883 ft 505 kts 307°
2026-05-10 04:18 -2.56476 90.75845 31885 ft 505 kts 307°
2026-05-10 04:18 -2.52411 90.70108 31885 ft 505 kts 307°
2026-05-10 04:19 -2.48345 90.64371 31883 ft 506 kts 307°
2026-05-10 04:19 -2.44277 90.58633 31882 ft 506 kts 307°
2026-05-10 04:20 -2.40209 90.52894 31882 ft 506 kts 307°
2026-05-10 04:20 -2.36145 90.47162 31882 ft 506 kts 307°
2026-05-10 04:21 -2.32077 90.41424 31885 ft 506 kts 307°
2026-05-10 04:21 -2.28009 90.35688 31886 ft 505 kts 307°
2026-05-10 04:22 -2.23944 90.29955 31884 ft 505 kts 307°
2026-05-10 04:22 -2.19880 90.24226 31885 ft 505 kts 307°
2026-05-10 04:23 -2.15819 90.18500 31885 ft 505 kts 307°
2026-05-10 04:23 -2.11758 90.12777 31885 ft 504 kts 307°
2026-05-10 04:24 -2.07699 90.07054 31885 ft 504 kts 307°
2026-05-10 04:24 -2.03645 90.01338 31885 ft 504 kts 307°
2026-05-10 04:25 -1.99587 89.95768 31890 ft 503 kts 311°
2026-05-10 04:25 -1.94878 89.90694 31893 ft 500 kts 315°
2026-05-10 04:26 -1.90029 89.85708 31886 ft 500 kts 315°
2026-05-10 04:26 -1.85207 89.80709 31887 ft 499 kts 315°
2026-05-10 04:27 -1.80410 89.75693 31886 ft 499 kts 315°
2026-05-10 04:27 -1.75622 89.70673 31888 ft 499 kts 315°
2026-05-10 04:28 -1.70833 89.65652 31892 ft 499 kts 315°
2026-05-10 04:28 -1.66045 89.60637 31890 ft 499 kts 315°
2026-05-10 04:29 -1.61249 89.55615 31892 ft 499 kts 315°
2026-05-10 04:29 -1.56450 89.50590 31891 ft 500 kts 315°
2026-05-10 04:30 -1.51649 89.45563 31890 ft 500 kts 315°
2026-05-10 04:30 -1.46848 89.40536 31894 ft 500 kts 315°
2026-05-10 04:31 -1.42046 89.35508 31896 ft 500 kts 315°
2026-05-10 04:31 -1.37243 89.30480 31892 ft 500 kts 315°
2026-05-10 04:32 -1.32441 89.25452 31893 ft 500 kts 315°
2026-05-10 04:32 -1.27640 89.20427 31893 ft 500 kts 315°
2026-05-10 04:33 -1.22841 89.15404 31891 ft 499 kts 315°
2026-05-10 04:33 -1.18051 89.10389 31892 ft 499 kts 315°
2026-05-10 04:34 -1.13257 89.05372 31893 ft 499 kts 315°
2026-05-10 04:34 -1.08466 89.00356 31893 ft 499 kts 315°
2026-05-10 04:35 -1.03750 88.95420 31890 ft 499 kts 315°
2026-05-10 04:35 -0.98995 88.90447 31896 ft 499 kts 315°
2026-05-10 04:36 -0.94202 88.85436 31895 ft 499 kts 315°
2026-05-10 04:36 -0.89414 88.80430 31890 ft 499 kts 315°
2026-05-10 04:37 -0.84622 88.75417 31892 ft 499 kts 315°
2026-05-10 04:37 -0.79830 88.70405 31893 ft 499 kts 315°
2026-05-10 04:38 -0.75038 88.65393 31897 ft 499 kts 315°
2026-05-10 04:38 -0.70247 88.60381 31895 ft 499 kts 315°
2026-05-10 04:39 -0.65455 88.55370 31890 ft 498 kts 315°
2026-05-10 04:39 -0.60665 88.50361 31891 ft 498 kts 315°
2026-05-10 04:40 -0.55876 88.45352 31894 ft 498 kts 315°
2026-05-10 04:40 -0.51089 88.40347 31893 ft 499 kts 315°
2026-05-10 04:41 -0.46296 88.35334 31893 ft 499 kts 315°
2026-05-10 04:41 -0.41501 88.30321 31890 ft 499 kts 315°
2026-05-10 04:42 -0.36706 88.25306 31894 ft 499 kts 315°
2026-05-10 04:42 -0.31909 88.20290 31893 ft 499 kts 315°
2026-05-10 04:43 -0.27112 88.15274 31892 ft 499 kts 315°
2026-05-10 04:43 -0.22316 88.10259 31893 ft 499 kts 315°
2026-05-10 04:44 -0.17519 88.05243 31894 ft 499 kts 315°
2026-05-10 04:44 -0.12726 88.00231 31893 ft 499 kts 315°
2026-05-10 04:45 -0.08001 87.95291 31891 ft 499 kts 315°
2026-05-10 04:45 -0.03202 87.90273 31890 ft 499 kts 315°
2026-05-10 04:46 0.01591 87.85261 31887 ft 499 kts 315°
2026-05-10 04:46 0.06391 87.80242 31891 ft 499 kts 315°
2026-05-10 04:47 0.11192 87.75222 31895 ft 500 kts 315°
2026-05-10 04:47 0.15963 87.70233 31893 ft 500 kts 315°
2026-05-10 04:48 0.20766 87.65211 31892 ft 500 kts 315°
2026-05-10 04:48 0.25564 87.60194 31893 ft 500 kts 315°
2026-05-10 04:49 0.30366 87.55172 31890 ft 500 kts 315°
2026-05-10 04:49 0.35168 87.50150 31890 ft 500 kts 315°
2026-05-10 04:50 0.39968 87.45129 31891 ft 500 kts 315°
2026-05-10 04:50 0.44768 87.40109 31892 ft 499 kts 315°
2026-05-10 04:51 0.49569 87.35090 31892 ft 499 kts 315°
2026-05-10 04:51 0.54370 87.30071 31892 ft 500 kts 315°
2026-05-10 04:52 0.59172 87.25049 31895 ft 500 kts 315°
2026-05-10 04:52 0.63971 87.20029 31891 ft 500 kts 315°
2026-05-10 04:53 0.68777 87.15001 31892 ft 500 kts 315°
2026-05-10 04:53 0.73585 87.09971 31890 ft 500 kts 315°
2026-05-10 04:54 0.78393 87.04941 31894 ft 500 kts 315°
2026-05-10 04:54 0.83153 86.99961 31894 ft 500 kts 315°
2026-05-10 04:55 0.87901 86.94993 31894 ft 500 kts 315°
2026-05-10 04:55 0.92708 86.89964 31894 ft 500 kts 315°
2026-05-10 04:56 0.97514 86.84935 31894 ft 500 kts 315°
2026-05-10 04:56 1.01533 86.80730 31894 ft 500 kts 315°
2026-05-10 04:57 1.07118 86.74886 31894 ft 500 kts 315°
2026-05-10 04:57 1.11926 86.69855 31894 ft 500 kts 315°
2026-05-10 04:58 1.16732 86.64824 31897 ft 500 kts 315°
2026-05-10 04:58 1.20759 86.60610 31892 ft 500 kts 315°
2026-05-10 04:59 1.25559 86.55585 31892 ft 500 kts 315°
2026-05-10 04:59 1.30358 86.50563 31895 ft 499 kts 315°
2026-05-10 05:00 1.35151 86.45546 31893 ft 499 kts 315°
2026-05-10 05:00 1.39917 86.40556 31897 ft 499 kts 315°
2026-05-10 05:01 1.44716 86.35532 31896 ft 500 kts 315°
2026-05-10 05:01 1.49516 86.30505 31893 ft 500 kts 315°
2026-05-10 05:02 1.56719 86.22961 31891 ft 500 kts 315°
2026-05-10 05:02 1.61528 86.17926 31901 ft 501 kts 314°
2026-05-10 05:03 1.66288 86.12827 31892 ft 502 kts 313°
2026-05-10 05:03 1.70958 86.07638 31894 ft 503 kts 313°
2026-05-10 05:04 1.75632 86.02429 31894 ft 503 kts 313°
2026-05-10 05:04 1.80250 85.97313 31892 ft 503 kts 313°
2026-05-10 05:05 1.84947 85.92123 31889 ft 503 kts 313°
2026-05-10 05:05 1.89643 85.86939 31890 ft 503 kts 313°
2026-05-10 05:06 1.94336 85.81755 31888 ft 503 kts 313°
2026-05-10 05:06 1.99026 85.76574 31893 ft 502 kts 313°
2026-05-10 05:07 2.03702 85.71407 31893 ft 502 kts 313°
2026-05-10 05:07 2.08357 85.66262 31893 ft 502 kts 313°
2026-05-10 05:08 2.13046 85.61080 31897 ft 503 kts 313°
2026-05-10 05:08 2.17736 85.55897 31893 ft 503 kts 313°
2026-05-10 05:09 2.22424 85.50714 31889 ft 502 kts 313°
2026-05-10 05:09 2.27112 85.45532 31891 ft 502 kts 313°
2026-05-10 05:10 2.31795 85.40354 31883 ft 501 kts 313°
2026-05-10 05:10 2.36470 85.35185 31889 ft 501 kts 313°
2026-05-10 05:11 2.41135 85.30025 31891 ft 501 kts 313°
2026-05-10 05:11 2.45805 85.24859 31886 ft 501 kts 313°
2026-05-10 05:12 2.50478 85.19692 31891 ft 501 kts 313°
2026-05-10 05:12 2.55150 85.14522 31888 ft 501 kts 314°
2026-05-10 05:13 2.62166 85.06760 31889 ft 502 kts 313°
2026-05-10 05:14 2.66849 85.01578 31882 ft 503 kts 313°
2026-05-10 05:14 2.71470 84.96464 31896 ft 503 kts 313°
2026-05-10 05:15 2.76169 84.91263 31889 ft 504 kts 313°
2026-05-10 05:15 2.80868 84.86062 31886 ft 505 kts 313°
2026-05-10 05:16 2.85572 84.80854 31887 ft 504 kts 313°
2026-05-10 05:16 2.90269 84.75652 31884 ft 503 kts 313°
2026-05-10 05:17 2.94955 84.70462 31885 ft 502 kts 313°
2026-05-10 05:17 2.99638 84.65275 31878 ft 503 kts 313°
2026-05-10 05:18 3.04362 84.60043 31890 ft 510 kts 312°
2026-05-10 05:18 3.09081 84.54814 31870 ft 501 kts 312°
2026-05-10 05:19 3.13710 84.49685 31883 ft 500 kts 312°
2026-05-10 05:19 3.18379 84.44510 31886 ft 502 kts 312°
2026-05-10 05:20 3.23077 84.39302 31884 ft 504 kts 312°
2026-05-10 05:20 3.27777 84.34092 31882 ft 505 kts 312°
2026-05-10 05:21 3.32486 84.28870 31880 ft 505 kts 312°
2026-05-10 05:21 3.37184 84.23661 31875 ft 503 kts 312°
2026-05-10 05:22 3.41872 84.18462 31877 ft 503 kts 311°
2026-05-10 05:22 3.46553 84.13268 31880 ft 502 kts 312°
2026-05-10 05:23 3.51235 84.08072 31882 ft 502 kts 312°
2026-05-10 05:23 3.55885 84.02860 31876 ft 502 kts 311°
2026-05-10 05:24 3.60393 83.97657 31873 ft 502 kts 310°
2026-05-10 05:24 3.64959 83.92362 31867 ft 503 kts 310°
2026-05-10 05:25 3.69539 83.87068 31881 ft 503 kts 311°
2026-05-10 05:25 3.74126 83.81778 31876 ft 503 kts 311°
2026-05-10 05:26 3.78680 83.76531 31874 ft 502 kts 311°
2026-05-10 05:26 3.83252 83.71262 31871 ft 500 kts 311°
2026-05-10 05:27 3.87809 83.66007 31872 ft 499 kts 311°
2026-05-10 05:27 3.92382 83.60732 31874 ft 498 kts 311°
2026-05-10 05:28 3.96927 83.55490 31872 ft 498 kts 311°
2026-05-10 05:28 4.01443 83.50279 31867 ft 501 kts 311°
2026-05-10 05:29 4.06029 83.44987 31883 ft 505 kts 311°
2026-05-10 05:29 4.10641 83.39664 31870 ft 507 kts 311°
2026-05-10 05:30 4.15266 83.34323 31875 ft 507 kts 311°
2026-05-10 05:30 4.19884 83.28992 31866 ft 506 kts 311°
2026-05-10 05:31 4.24490 83.23673 31860 ft 505 kts 311°
2026-05-10 05:31 4.29082 83.18367 31867 ft 504 kts 311°
2026-05-10 05:32 4.33675 83.13061 31881 ft 503 kts 311°
2026-05-10 05:32 4.38250 83.07775 31865 ft 501 kts 311°
2026-05-10 05:33 4.42807 83.02507 31863 ft 499 kts 311°
2026-05-10 05:33 4.47281 82.97335 31865 ft 498 kts 311°
2026-05-10 05:34 4.51821 82.92085 31865 ft 499 kts 311°
2026-05-10 05:34 4.56370 82.86824 31869 ft 500 kts 311°
2026-05-10 05:35 4.60927 82.81552 31863 ft 501 kts 311°
2026-05-10 05:35 4.65487 82.76277 31868 ft 501 kts 311°
2026-05-10 05:36 4.70044 82.71003 31867 ft 500 kts 311°
2026-05-10 05:36 4.74588 82.65742 31861 ft 498 kts 311°
2026-05-10 05:37 4.79117 82.60499 31860 ft 497 kts 311°
2026-05-10 05:37 4.83634 82.55268 31863 ft 496 kts 311°
2026-05-10 05:38 4.88145 82.50043 31861 ft 495 kts 311°
2026-05-10 05:38 4.92629 82.44849 31853 ft 496 kts 311°
2026-05-10 05:39 4.97160 82.39598 31870 ft 499 kts 311°
2026-05-10 05:39 5.01698 82.34337 31866 ft 500 kts 311°
2026-05-10 05:40 5.06260 82.29049 31857 ft 502 kts 311°
2026-05-10 05:40 5.10828 82.23751 31858 ft 502 kts 311°
2026-05-10 05:41 5.15397 82.18451 31857 ft 502 kts 311°
2026-05-10 05:41 5.19961 82.13156 31859 ft 501 kts 311°
2026-05-10 05:42 5.24513 82.07874 31856 ft 500 kts 311°
2026-05-10 05:42 5.29054 82.02603 31852 ft 499 kts 311°
2026-05-10 05:43 5.33518 81.97420 31857 ft 498 kts 311°
2026-05-10 05:43 5.38048 81.92159 31858 ft 499 kts 311°
2026-05-10 05:44 5.42586 81.86887 31857 ft 499 kts 311°
2026-05-10 05:44 5.47129 81.81608 31858 ft 500 kts 311°
2026-05-10 05:45 5.51676 81.76324 31860 ft 500 kts 311°
2026-05-10 05:45 5.55458 81.71926 31857 ft 500 kts 311°
2026-05-10 05:46 5.60007 81.66635 31855 ft 501 kts 311°
2026-05-10 05:46 5.65300 81.60491 31856 ft 501 kts 311°
2026-05-10 05:47 5.69134 81.56073 31855 ft 502 kts 311°
2026-05-10 05:47 5.73726 81.50784 31854 ft 503 kts 311°
2026-05-10 05:48 5.78292 81.45516 31854 ft 504 kts 311°
2026-05-10 05:48 5.82894 81.40202 31852 ft 504 kts 311°
2026-05-10 05:49 5.87496 81.34885 31851 ft 504 kts 311°
2026-05-10 05:49 5.92097 81.29569 31851 ft 504 kts 311°
2026-05-10 05:50 5.96696 81.24255 31852 ft 504 kts 311°
2026-05-10 05:50 6.01283 81.18952 31845 ft 504 kts 311°
2026-05-10 05:51 6.05883 81.13632 31842 ft 504 kts 311°
2026-05-10 05:51 6.10488 81.08305 31841 ft 505 kts 311°
2026-05-10 05:52 6.15090 81.02958 31836 ft 506 kts 310°
2026-05-10 05:52 6.19602 80.97673 31837 ft 506 kts 310°
2026-05-10 05:53 6.24189 80.92297 31836 ft 507 kts 310°
2026-05-10 05:53 6.28779 80.86922 31845 ft 507 kts 310°
2026-05-10 05:54 6.33369 80.81547 31863 ft 507 kts 310°
2026-05-10 05:54 6.37956 80.76174 31857 ft 507 kts 310°
2026-05-10 05:55 6.42545 80.70797 31857 ft 506 kts 310°
2026-05-10 05:55 6.47132 80.65420 31870 ft 507 kts 310°
2026-05-10 05:56 6.51729 80.60113 31869 ft 506 kts 311°
2026-05-10 05:56 6.56413 80.54822 31870 ft 506 kts 312°
2026-05-10 05:57 6.61097 80.49527 31874 ft 507 kts 312°
2026-05-10 05:57 6.65776 80.44216 31861 ft 507 kts 312°
2026-05-10 05:58 6.70449 80.38902 31867 ft 508 kts 312°
2026-05-10 05:58 6.75131 80.33575 31861 ft 508 kts 312°
2026-05-10 05:59 6.79819 80.28241 31851 ft 509 kts 312°
2026-05-10 05:59 6.84513 80.22899 31849 ft 510 kts 312°
2026-05-10 06:00 6.89211 80.17551 31843 ft 510 kts 312°
2026-05-10 06:00 6.93908 80.12202 31841 ft 510 kts 312°
2026-05-10 06:01 6.98601 80.06855 31836 ft 509 kts 312°
2026-05-10 06:01 7.03286 80.01515 31835 ft 509 kts 312°
2026-05-10 06:02 7.07901 79.96254 31828 ft 509 kts 312°
2026-05-10 06:02 7.12577 79.90921 31827 ft 508 kts 312°
2026-05-10 06:03 7.16799 79.85230 31831 ft 508 kts 302°
2026-05-10 06:03 7.20011 79.78905 31840 ft 507 kts 295°
2026-05-10 06:04 7.24495 79.69248 31828 ft 507 kts 295°
2026-05-10 06:04 7.27523 79.62826 31827 ft 508 kts 296°
2026-05-10 06:05 7.30568 79.56410 31827 ft 508 kts 296°
2026-05-10 06:05 7.33613 79.49993 31828 ft 508 kts 296°
2026-05-10 06:06 7.36653 79.43578 31827 ft 508 kts 296°
2026-05-10 06:06 7.39694 79.37154 31827 ft 508 kts 295°
2026-05-10 06:07 7.42736 79.30726 31839 ft 508 kts 295°
2026-05-10 06:07 7.45779 79.24294 31828 ft 508 kts 295°
2026-05-10 06:08 7.48818 79.17865 31830 ft 508 kts 295°
2026-05-10 06:08 7.51850 79.11442 31829 ft 507 kts 295°
2026-05-10 06:09 7.54700 79.04944 31833 ft 507 kts 293°
2026-05-10 06:09 7.57413 78.98509 31836 ft 507 kts 293°
2026-05-10 06:10 7.60187 78.91977 31838 ft 507 kts 293°
2026-05-10 06:10 7.62983 78.85459 31833 ft 507 kts 294°
2026-05-10 06:11 7.65788 78.78933 31834 ft 507 kts 293°
2026-05-10 06:11 7.68592 78.72406 31834 ft 507 kts 293°
2026-05-10 06:12 7.71394 78.65875 31841 ft 507 kts 294°
2026-05-10 06:12 7.74195 78.59344 31838 ft 507 kts 294°
2026-05-10 06:13 7.76975 78.52857 31838 ft 507 kts 294°
2026-05-10 06:13 7.79772 78.46329 31837 ft 507 kts 294°
2026-05-10 06:14 7.82566 78.39802 31840 ft 507 kts 293°
2026-05-10 06:14 7.85356 78.33282 31843 ft 507 kts 293°
2026-05-10 06:15 7.88148 78.26757 31840 ft 507 kts 293°
2026-05-10 06:15 7.90938 78.20229 31844 ft 507 kts 293°
2026-05-10 06:16 7.93734 78.13702 31847 ft 507 kts 294°
2026-05-10 06:16 7.96613 78.07210 31846 ft 507 kts 294°
2026-05-10 06:17 7.99519 78.00732 31844 ft 507 kts 294°
2026-05-10 06:17 8.02366 77.94357 31849 ft 507 kts 294°
2026-05-10 06:18 8.05251 77.87867 31847 ft 507 kts 294°
2026-05-10 06:18 8.08129 77.81384 31847 ft 507 kts 294°
2026-05-10 06:19 8.11008 77.74897 31841 ft 506 kts 294°
2026-05-10 06:19 8.13886 77.68411 31843 ft 506 kts 294°
2026-05-10 06:20 8.16763 77.61923 31856 ft 506 kts 294°
2026-05-10 06:20 8.19637 77.55439 31848 ft 506 kts 294°
2026-05-10 06:21 8.22509 77.48957 31852 ft 506 kts 294°
2026-05-10 06:21 8.25380 77.42474 31852 ft 506 kts 294°
2026-05-10 06:22 8.28250 77.35988 31853 ft 506 kts 294°
2026-05-10 06:22 8.31118 77.29506 31861 ft 506 kts 294°
2026-05-10 06:23 8.33983 77.23024 31859 ft 505 kts 294°
2026-05-10 06:23 8.36849 77.16539 31857 ft 506 kts 294°
2026-05-10 06:24 8.39714 77.10051 31855 ft 506 kts 294°
2026-05-10 06:24 8.42557 77.03609 31850 ft 506 kts 294°
2026-05-10 06:25 8.45378 76.97214 31856 ft 506 kts 294°
2026-05-10 06:25 8.48542 76.90869 31858 ft 506 kts 302°
2026-05-10 06:26 8.52603 76.85071 31858 ft 505 kts 307°
2026-05-10 06:26 8.56765 76.79342 31847 ft 506 kts 306°
2026-05-10 06:27 8.60902 76.73591 31846 ft 506 kts 306°
2026-05-10 06:27 8.65015 76.67821 31847 ft 506 kts 306°
2026-05-10 06:28 8.69118 76.62045 31843 ft 506 kts 306°
2026-05-10 06:28 8.73216 76.56276 31841 ft 506 kts 306°
2026-05-10 06:29 8.77319 76.50501 31843 ft 506 kts 306°
2026-05-10 06:29 8.81424 76.44722 31843 ft 506 kts 306°
2026-05-10 06:30 8.85530 76.38939 31839 ft 506 kts 306°
2026-05-10 06:30 8.89635 76.33154 31841 ft 506 kts 306°
2026-05-10 06:31 8.93713 76.27406 31838 ft 506 kts 306°
2026-05-10 06:31 8.97816 76.21619 31838 ft 506 kts 306°
2026-05-10 06:32 9.01244 76.16782 31842 ft 506 kts 306°
2026-05-10 06:32 9.06008 76.10057 31842 ft 506 kts 306°
2026-05-10 06:33 9.10110 76.04264 31838 ft 507 kts 306°
2026-05-10 06:33 9.14150 75.98556 31840 ft 507 kts 306°
2026-05-10 06:34 9.17561 75.93736 31842 ft 506 kts 306°
2026-05-10 06:34 9.21661 75.87937 31835 ft 506 kts 306°
2026-05-10 06:35 9.25761 75.82138 31835 ft 506 kts 306°
2026-05-10 06:35 9.29854 75.76344 31839 ft 506 kts 306°
2026-05-10 06:36 9.33948 75.70546 31834 ft 506 kts 306°
2026-05-10 06:36 9.38037 75.64754 31835 ft 505 kts 306°
2026-05-10 06:37 9.42121 75.58966 31833 ft 505 kts 306°
2026-05-10 06:37 9.46200 75.53182 31834 ft 504 kts 306°
2026-05-10 06:38 9.50277 75.47397 31831 ft 504 kts 306°
2026-05-10 06:38 9.54353 75.41613 31832 ft 504 kts 306°
2026-05-10 06:39 9.58420 75.35837 31829 ft 503 kts 306°
2026-05-10 06:39 9.62476 75.30075 31832 ft 502 kts 306°
2026-05-10 06:40 9.66531 75.24312 31829 ft 502 kts 306°
2026-05-10 06:40 9.70581 75.18553 31832 ft 502 kts 306°
2026-05-10 06:41 9.74629 75.12793 31830 ft 502 kts 306°
2026-05-10 06:41 9.78677 75.07032 31830 ft 502 kts 306°
2026-05-10 06:42 9.82724 75.01268 31830 ft 502 kts 306°
2026-05-10 06:42 9.86707 74.95593 31824 ft 501 kts 306°
2026-05-10 06:43 9.90748 74.89832 31830 ft 501 kts 306°
2026-05-10 06:43 9.94782 74.84079 31830 ft 501 kts 306°
2026-05-10 06:44 9.98818 74.78320 31827 ft 501 kts 306°
2026-05-10 06:44 10.02849 74.72567 31827 ft 501 kts 306°
2026-05-10 06:45 10.06882 74.66806 31829 ft 501 kts 306°
2026-05-10 06:45 10.10888 74.61082 31828 ft 501 kts 306°
2026-05-10 06:46 10.14947 74.55278 31827 ft 501 kts 306°
2026-05-10 06:46 10.18952 74.49549 31827 ft 501 kts 306°
2026-05-10 06:47 10.22982 74.43781 31827 ft 501 kts 306°
2026-05-10 06:47 10.27012 74.38011 31827 ft 501 kts 306°
2026-05-10 06:48 10.31035 74.32246 31831 ft 501 kts 307°
2026-05-10 06:48 10.35060 74.26475 31825 ft 500 kts 307°
2026-05-10 06:49 10.39083 74.20705 31826 ft 500 kts 307°
2026-05-10 06:49 10.43118 74.14948 31830 ft 500 kts 307°
2026-05-10 06:50 10.47178 74.09211 31827 ft 500 kts 307°
2026-05-10 06:50 10.51237 74.03474 31825 ft 500 kts 307°
2026-05-10 06:51 10.55227 73.97823 31824 ft 500 kts 307°
2026-05-10 06:51 10.59269 73.92090 31826 ft 499 kts 307°
2026-05-10 06:52 10.63311 73.86352 31827 ft 499 kts 307°
2026-05-10 06:52 10.67352 73.80615 31823 ft 499 kts 307°
2026-05-10 06:53 10.71390 73.74877 31827 ft 499 kts 307°
2026-05-10 06:53 10.75428 73.69138 31827 ft 499 kts 307°
2026-05-10 06:54 10.79463 73.63399 31830 ft 499 kts 307°
2026-05-10 06:54 10.83496 73.57662 31826 ft 498 kts 307°
2026-05-10 06:55 10.87524 73.51927 31813 ft 498 kts 306°
2026-05-10 06:55 10.91523 73.46231 31824 ft 498 kts 307°
2026-05-10 06:56 10.95544 73.40500 31825 ft 498 kts 306°
2026-05-10 06:56 10.99570 73.34760 31829 ft 498 kts 306°
2026-05-10 06:57 11.03591 73.29024 31829 ft 498 kts 306°
2026-05-10 06:57 11.07608 73.23289 31824 ft 497 kts 306°
2026-05-10 06:58 11.11621 73.17557 31827 ft 497 kts 306°
2026-05-10 06:58 11.15630 73.11828 31826 ft 496 kts 306°
2026-05-10 06:59 11.19631 73.06107 31825 ft 496 kts 306°
2026-05-10 06:59 11.23638 73.00374 31829 ft 497 kts 306°
2026-05-10 07:00 11.27586 72.94725 31830 ft 497 kts 306°
2026-05-10 07:00 11.31602 72.88972 31833 ft 499 kts 306°
2026-05-10 07:01 11.35628 72.83202 31827 ft 500 kts 306°
2026-05-10 07:01 11.39663 72.77418 31832 ft 501 kts 306°
2026-05-10 07:02 11.43698 72.71629 31826 ft 501 kts 306°
2026-05-10 07:02 11.47701 72.65884 31829 ft 500 kts 306°
2026-05-10 07:03 11.51721 72.60108 31826 ft 500 kts 306°
2026-05-10 07:03 11.55736 72.54339 31827 ft 498 kts 307°
2026-05-10 07:04 11.59736 72.48586 31814 ft 496 kts 307°
2026-05-10 07:04 11.63725 72.42847 31824 ft 495 kts 307°
2026-05-10 07:05 11.67708 72.37115 31829 ft 495 kts 307°
2026-05-10 07:05 11.71687 72.31384 31828 ft 495 kts 306°
2026-05-10 07:06 11.75664 72.25651 31828 ft 495 kts 307°
2026-05-10 07:06 11.79639 72.19922 31833 ft 494 kts 305°
2026-05-10 07:07 11.83602 72.14201 31827 ft 493 kts 306°
2026-05-10 07:07 11.87561 72.08484 31830 ft 494 kts 306°
2026-05-10 07:08 11.93494 71.99913 31834 ft 496 kts 306°
2026-05-10 07:09 11.97526 71.94271 31834 ft 497 kts 308°
2026-05-10 07:09 12.01664 71.88621 31829 ft 498 kts 307°
2026-05-10 07:10 12.05802 71.82949 31836 ft 498 kts 307°
2026-05-10 07:10 12.09929 71.77259 31836 ft 498 kts 307°
2026-05-10 07:11 12.14045 71.71570 31826 ft 497 kts 307°
2026-05-10 07:11 12.20215 71.63040 31834 ft 498 kts 307°
2026-05-10 07:12 12.24335 71.57342 31836 ft 498 kts 307°
2026-05-10 07:12 12.28426 71.51680 31828 ft 498 kts 306°
2026-05-10 07:13 12.32551 71.45968 31829 ft 500 kts 306°
2026-05-10 07:13 12.36690 71.40233 31834 ft 502 kts 306°
2026-05-10 07:14 12.40837 71.34484 31834 ft 502 kts 306°
2026-05-10 07:14 12.44987 71.28723 31832 ft 503 kts 306°
2026-05-10 07:15 12.49148 71.22949 31831 ft 505 kts 306°
2026-05-10 07:15 12.53311 71.17174 31827 ft 505 kts 306°
2026-05-10 07:16 12.57472 71.11399 31833 ft 503 kts 306°
2026-05-10 07:16 12.61626 71.05628 31833 ft 503 kts 306°
2026-05-10 07:17 12.65743 70.99906 31834 ft 502 kts 306°
2026-05-10 07:17 12.69841 70.94204 31823 ft 501 kts 306°
2026-05-10 07:18 12.73968 70.88459 31835 ft 500 kts 306°
2026-05-10 07:18 12.78071 70.82743 31839 ft 502 kts 307°
2026-05-10 07:19 12.82203 70.76985 31842 ft 502 kts 307°
2026-05-10 07:19 12.86344 70.71209 31837 ft 503 kts 307°
2026-05-10 07:20 12.90495 70.65417 31838 ft 505 kts 307°
2026-05-10 07:20 12.94653 70.59610 31851 ft 505 kts 307°
2026-05-10 07:21 12.98801 70.53812 31839 ft 503 kts 307°
2026-05-10 07:21 13.02933 70.48034 31837 ft 502 kts 307°
2026-05-10 07:22 13.06387 70.43201 31846 ft 501 kts 307°
2026-05-10 07:22 13.10461 70.37470 31839 ft 500 kts 307°
2026-05-10 07:23 13.14551 70.31705 31844 ft 499 kts 306°
2026-05-10 07:23 13.18641 70.25936 31842 ft 501 kts 307°
2026-05-10 07:24 13.22740 70.20156 31850 ft 501 kts 307°
2026-05-10 07:24 13.26845 70.14361 31847 ft 502 kts 307°
2026-05-10 07:25 13.30952 70.08561 31840 ft 503 kts 307°
2026-05-10 07:25 13.35063 70.02753 31854 ft 502 kts 307°
2026-05-10 07:26 13.39097 69.97048 31829 ft 502 kts 306°
2026-05-10 07:26 13.43197 69.91248 31850 ft 502 kts 306°
2026-05-10 07:27 13.47293 69.85447 31849 ft 501 kts 306°
2026-05-10 07:27 13.51382 69.79651 31844 ft 501 kts 306°
2026-05-10 07:28 13.55471 69.73854 31847 ft 501 kts 306°
2026-05-10 07:28 13.59564 69.68047 31854 ft 502 kts 306°
2026-05-10 07:29 13.63660 69.62232 31849 ft 503 kts 306°
2026-05-10 07:29 13.67764 69.56402 31857 ft 504 kts 306°
2026-05-10 07:30 13.71869 69.50564 31855 ft 504 kts 306°
2026-05-10 07:30 13.75965 69.44737 31852 ft 503 kts 306°
2026-05-10 07:31 13.80059 69.38909 31857 ft 502 kts 306°
2026-05-10 07:31 13.84116 69.33129 31851 ft 501 kts 306°
2026-05-10 07:32 13.88190 69.27321 31852 ft 500 kts 306°
2026-05-10 07:32 13.92259 69.21515 31852 ft 500 kts 306°
2026-05-10 07:33 13.96330 69.15703 31861 ft 500 kts 306°
2026-05-10 07:33 14.00402 69.09885 31852 ft 502 kts 306°
2026-05-10 07:34 14.04482 69.04052 31856 ft 503 kts 306°
2026-05-10 07:34 14.08508 68.98293 31858 ft 503 kts 306°
2026-05-10 07:35 14.12610 68.92466 31843 ft 502 kts 307°
2026-05-10 07:35 14.16720 68.86661 31857 ft 501 kts 307°
2026-05-10 07:36 14.20814 68.80869 31854 ft 499 kts 307°
2026-05-10 07:36 14.24897 68.75081 31852 ft 499 kts 307°
2026-05-10 07:37 14.28977 68.69291 31852 ft 500 kts 307°
2026-05-10 07:37 14.33062 68.63490 31861 ft 500 kts 306°
2026-05-10 07:38 14.37150 68.57680 31862 ft 502 kts 307°
2026-05-10 07:38 14.41248 68.51852 31855 ft 502 kts 307°
2026-05-10 07:39 14.45323 68.46053 31866 ft 502 kts 307°
2026-05-10 07:39 14.49420 68.40217 31850 ft 502 kts 307°
2026-05-10 07:40 14.53513 68.34384 31858 ft 501 kts 306°
2026-05-10 07:40 14.57596 68.28561 31857 ft 500 kts 306°
2026-05-10 07:41 14.61668 68.22749 31850 ft 499 kts 306°
2026-05-10 07:41 14.65734 68.16940 31859 ft 499 kts 307°
2026-05-10 07:42 14.69794 68.11139 31862 ft 499 kts 306°
2026-05-10 07:42 14.73862 68.05320 31860 ft 500 kts 307°
2026-05-10 07:43 14.77873 67.99579 31866 ft 501 kts 307°
2026-05-10 07:43 14.81950 67.93739 31863 ft 501 kts 306°
2026-05-10 07:44 14.86022 67.87901 31850 ft 501 kts 306°
2026-05-10 07:44 14.90086 67.82070 31858 ft 499 kts 306°
2026-05-10 07:45 14.94141 67.76250 31862 ft 498 kts 306°
2026-05-10 07:45 14.98183 67.70440 31847 ft 497 kts 306°
2026-05-10 07:46 15.02219 67.64640 31869 ft 497 kts 306°
2026-05-10 07:46 15.06233 67.58863 31858 ft 498 kts 306°
2026-05-10 07:47 15.10284 67.53031 31866 ft 500 kts 307°
2026-05-10 07:47 15.14340 67.47186 31866 ft 500 kts 306°
2026-05-10 07:48 15.18389 67.41347 31856 ft 500 kts 306°
2026-05-10 07:48 15.22439 67.35503 31871 ft 499 kts 306°
2026-05-10 07:49 15.26476 67.29671 31863 ft 498 kts 306°
2026-05-10 07:49 15.30505 67.23847 31870 ft 497 kts 306°
2026-05-10 07:50 15.34533 67.18021 31873 ft 497 kts 306°
2026-05-10 07:50 15.38561 67.12191 31864 ft 498 kts 306°
2026-05-10 07:51 15.42593 67.06349 31868 ft 499 kts 306°
2026-05-10 07:51 15.46632 67.00494 31871 ft 499 kts 306°
2026-05-10 07:52 15.50601 66.94733 31864 ft 499 kts 306°
2026-05-10 07:52 15.54635 66.88874 31871 ft 499 kts 306°
2026-05-10 07:53 15.58662 66.83022 31871 ft 498 kts 306°
2026-05-10 07:53 15.62715 66.77210 31865 ft 497 kts 307°
2026-05-10 07:54 15.66788 66.71413 31872 ft 497 kts 307°
2026-05-10 07:54 15.70859 66.65610 31871 ft 497 kts 307°
2026-05-10 07:55 15.74930 66.59789 31868 ft 499 kts 307°
2026-05-10 07:55 15.78975 66.53996 31872 ft 499 kts 307°
2026-05-10 07:56 15.83039 66.48172 31871 ft 498 kts 306°
2026-05-10 07:56 15.87099 66.42347 31856 ft 497 kts 306°
2026-05-10 07:57 15.91149 66.36534 31866 ft 496 kts 307°
2026-05-10 07:57 15.95191 66.30728 31871 ft 495 kts 306°
2026-05-10 07:58 15.99227 66.24926 31861 ft 496 kts 307°
2026-05-10 07:58 16.03257 66.19129 31869 ft 495 kts 307°
2026-05-10 07:59 16.07287 66.13326 31866 ft 495 kts 307°
2026-05-10 07:59 16.11321 66.07513 31874 ft 496 kts 307°
2026-05-10 08:00 16.15352 66.01701 31875 ft 496 kts 306°
2026-05-10 08:00 16.19317 65.95978 31869 ft 496 kts 307°
2026-05-10 08:01 16.23345 65.90160 31879 ft 495 kts 306°
2026-05-10 08:01 16.27362 65.84353 31868 ft 494 kts 307°
2026-05-10 08:02 16.31366 65.78558 31867 ft 493 kts 307°
2026-05-10 08:02 16.35363 65.72773 31874 ft 492 kts 306°
2026-05-10 08:03 16.39354 65.66990 31870 ft 492 kts 306°
2026-05-10 08:03 16.43343 65.61204 31873 ft 492 kts 307°
2026-05-10 08:04 16.47331 65.55417 31878 ft 492 kts 306°
2026-05-10 08:04 16.51295 65.49658 31871 ft 492 kts 307°
2026-05-10 08:05 16.55285 65.43858 31876 ft 492 kts 306°
2026-05-10 08:05 16.59268 65.38062 31876 ft 491 kts 306°
2026-05-10 08:06 16.63245 65.32271 31874 ft 491 kts 307°
2026-05-10 08:06 16.67216 65.26484 31880 ft 490 kts 307°
2026-05-10 08:07 16.73161 65.17811 31875 ft 490 kts 307°
2026-05-10 08:08 16.77115 65.12038 31874 ft 489 kts 307°
2026-05-10 08:08 16.81069 65.06260 31877 ft 489 kts 307°
2026-05-10 08:09 16.85019 65.00482 31877 ft 489 kts 306°
2026-05-10 08:09 16.88903 64.94796 31880 ft 488 kts 306°
2026-05-10 08:10 16.92841 64.89025 31880 ft 488 kts 306°
2026-05-10 08:10 16.96775 64.83257 31879 ft 487 kts 306°
2026-05-10 08:11 17.00696 64.77503 31878 ft 487 kts 306°
2026-05-10 08:11 17.03956 64.72714 31883 ft 487 kts 307°
2026-05-10 08:12 17.07879 64.66948 31881 ft 487 kts 306°
2026-05-10 08:12 17.11802 64.61178 31879 ft 487 kts 307°
2026-05-10 08:13 17.15722 64.55405 31880 ft 487 kts 306°
2026-05-10 08:13 17.19642 64.49628 31880 ft 487 kts 306°
2026-05-10 08:14 17.23561 64.43847 31884 ft 487 kts 306°
2026-05-10 08:14 17.27481 64.38061 31882 ft 487 kts 306°
2026-05-10 08:15 17.31443 64.32316 31881 ft 487 kts 308°
2026-05-10 08:15 17.35481 64.26627 31879 ft 487 kts 308°
2026-05-10 08:16 17.39517 64.20945 31886 ft 486 kts 308°
2026-05-10 08:16 17.43535 64.15257 31881 ft 486 kts 307°
2026-05-10 08:17 17.47542 64.09564 31882 ft 485 kts 307°
2026-05-10 08:17 17.51545 64.03872 31881 ft 485 kts 307°
2026-05-10 08:18 17.55484 63.98265 31884 ft 485 kts 307°
2026-05-10 08:18 17.59484 63.92568 31883 ft 485 kts 307°
2026-05-10 08:19 17.63476 63.86879 31881 ft 485 kts 307°
2026-05-10 08:19 17.69460 63.78340 31884 ft 484 kts 307°
2026-05-10 08:20 17.73417 63.72688 31882 ft 483 kts 307°
2026-05-10 08:20 17.77393 63.67005 31879 ft 483 kts 307°
2026-05-10 08:21 17.81364 63.61323 31883 ft 482 kts 307°
2026-05-10 08:21 17.85331 63.55641 31877 ft 483 kts 307°
2026-05-10 08:22 17.89298 63.49957 31878 ft 483 kts 307°
2026-05-10 08:22 17.93260 63.44273 31883 ft 483 kts 307°
2026-05-10 08:23 17.97223 63.38582 31881 ft 482 kts 307°
2026-05-10 08:23 18.01175 63.32903 31883 ft 482 kts 307°
2026-05-10 08:24 18.05130 63.27214 31881 ft 482 kts 307°
2026-05-10 08:24 18.09080 63.21529 31882 ft 482 kts 307°
2026-05-10 08:25 18.13028 63.15841 31886 ft 482 kts 307°
2026-05-10 08:25 18.16974 63.10150 31884 ft 481 kts 307°
2026-05-10 08:26 18.20920 63.04455 31883 ft 482 kts 307°
2026-05-10 08:26 18.24805 62.98843 31886 ft 482 kts 307°
2026-05-10 08:27 18.28745 62.93146 31890 ft 482 kts 307°
2026-05-10 08:27 18.32686 62.87444 31885 ft 482 kts 307°
2026-05-10 08:28 18.36622 62.81741 31886 ft 481 kts 307°
2026-05-10 08:28 18.40552 62.76044 31885 ft 480 kts 307°
2026-05-10 08:29 18.44477 62.70350 31882 ft 480 kts 307°
2026-05-10 08:29 18.48400 62.64651 31888 ft 480 kts 307°
2026-05-10 08:30 18.52297 62.58986 31881 ft 481 kts 307°
2026-05-10 08:30 18.56220 62.53277 31888 ft 482 kts 307°
2026-05-10 08:31 18.60172 62.47510 31889 ft 482 kts 307°
2026-05-10 08:31 18.64072 62.41757 31882 ft 482 kts 306°
2026-05-10 08:32 18.67933 62.36039 31890 ft 481 kts 306°
2026-05-10 08:32 18.71816 62.30289 31886 ft 481 kts 306°
2026-05-10 08:33 18.75696 62.24546 31884 ft 481 kts 306°
2026-05-10 08:33 18.79574 62.18800 31889 ft 481 kts 306°
2026-05-10 08:34 18.83454 62.13045 31888 ft 481 kts 306°
2026-05-10 08:34 18.87340 62.07278 31888 ft 482 kts 306°
2026-05-10 08:35 18.91221 62.01512 31889 ft 482 kts 306°
2026-05-10 08:35 18.95041 61.95831 31885 ft 482 kts 306°
2026-05-10 08:36 18.98913 61.90067 31885 ft 480 kts 306°
2026-05-10 08:36 19.02768 61.84324 31881 ft 480 kts 306°
2026-05-10 08:37 19.06628 61.78568 31885 ft 480 kts 306°
2026-05-10 08:37 19.10486 61.72809 31882 ft 480 kts 306°
2026-05-10 08:38 19.14347 61.67041 31885 ft 480 kts 305°
2026-05-10 08:38 19.18209 61.61266 31883 ft 481 kts 306°
2026-05-10 08:39 19.22064 61.55495 31879 ft 481 kts 305°
2026-05-10 08:39 19.25896 61.49754 31883 ft 481 kts 305°
2026-05-10 08:40 19.29748 61.43978 31885 ft 480 kts 305°
2026-05-10 08:40 19.33592 61.38207 31881 ft 480 kts 305°
2026-05-10 08:41 19.37435 61.32433 31889 ft 479 kts 305°
2026-05-10 08:41 19.41277 61.26656 31881 ft 480 kts 305°
2026-05-10 08:42 19.45121 61.20869 31887 ft 480 kts 305°
2026-05-10 08:42 19.48964 61.15078 31883 ft 480 kts 305°
2026-05-10 08:43 19.52800 61.09293 31882 ft 480 kts 305°
2026-05-10 08:43 19.56633 61.03507 31881 ft 479 kts 305°
2026-05-10 08:44 19.60401 60.97813 31884 ft 479 kts 305°
2026-05-10 08:44 19.64200 60.92067 31882 ft 479 kts 305°
2026-05-10 08:45 19.68047 60.86242 31881 ft 479 kts 305°
2026-05-10 08:45 19.71847 60.80485 31883 ft 480 kts 305°
2026-05-10 08:46 19.75676 60.74677 31886 ft 480 kts 305°
2026-05-10 08:46 19.79498 60.68873 31879 ft 480 kts 305°
2026-05-10 08:47 19.83319 60.63066 31888 ft 479 kts 305°
2026-05-10 08:47 19.87128 60.57270 31876 ft 478 kts 305°
2026-05-10 08:48 19.90931 60.51478 31875 ft 478 kts 305°
2026-05-10 08:48 19.94731 60.45686 31877 ft 478 kts 305°
2026-05-10 08:49 19.98534 60.39882 31885 ft 478 kts 305°
2026-05-10 08:49 20.02347 60.34091 31880 ft 479 kts 307°
2026-05-10 08:50 20.06979 60.29024 31880 ft 478 kts 320°
2026-05-10 08:50 20.12501 60.25092 31881 ft 478 kts 329°
2026-05-10 08:51 20.18254 60.21529 31874 ft 479 kts 329°
2026-05-10 08:51 20.23995 60.17955 31871 ft 479 kts 329°
2026-05-10 08:52 20.29716 60.14342 31877 ft 477 kts 329°
2026-05-10 08:52 20.35376 60.10745 31867 ft 477 kts 329°
2026-05-10 08:53 20.41062 60.07125 31874 ft 476 kts 329°
2026-05-10 08:53 20.46753 60.03502 31877 ft 476 kts 328°
2026-05-10 08:54 20.52382 59.99917 31872 ft 477 kts 328°
2026-05-10 08:54 20.58044 59.96307 31875 ft 476 kts 328°
2026-05-10 08:55 20.63725 59.92683 31865 ft 475 kts 328°
2026-05-10 08:55 20.69395 59.89062 31872 ft 474 kts 328°
2026-05-10 08:56 20.75060 59.85440 31864 ft 475 kts 328°
2026-05-10 08:56 20.80734 59.81810 31872 ft 475 kts 328°
2026-05-10 08:57 20.86404 59.78180 31877 ft 475 kts 328°
2026-05-10 08:57 20.89240 59.76362 32204 ft 475 kts 328°
2026-05-10 08:57 20.92076 59.74543 32613 ft 476 kts 328°
2026-05-10 08:58 20.94924 59.72716 32894 ft 478 kts 328°
2026-05-10 08:58 20.97790 59.70877 33132 ft 482 kts 328°
2026-05-10 08:58 21.00647 59.69044 33532 ft 480 kts 328°
2026-05-10 08:58 21.03521 59.67195 33673 ft 486 kts 328°
2026-05-10 08:59 21.06386 59.65348 33858 ft 488 kts 328°
2026-05-10 08:59 21.09296 59.63470 34094 ft 489 kts 328°
2026-05-10 08:59 21.12201 59.61596 34488 ft 485 kts 327°
2026-05-10 08:59 21.15087 59.59732 34801 ft 484 kts 327°
2026-05-10 09:00 21.17980 59.57863 34983 ft 487 kts 327°
2026-05-10 09:00 21.20886 59.55984 35180 ft 488 kts 327°
2026-05-10 09:00 21.23794 59.54105 35462 ft 488 kts 327°
2026-05-10 09:00 21.26695 59.52230 35761 ft 487 kts 327°
2026-05-10 09:01 21.32531 59.48457 35848 ft 491 kts 327°
2026-05-10 09:01 21.37409 59.45304 35845 ft 486 kts 327°
2026-05-10 09:02 21.43177 59.41569 35852 ft 483 kts 327°
2026-05-10 09:02 21.48920 59.37845 35851 ft 482 kts 327°
2026-05-10 09:03 21.54659 59.34120 35856 ft 482 kts 327°
2026-05-10 09:03 21.60393 59.30396 35857 ft 483 kts 327°
2026-05-10 09:04 21.66114 59.26683 35849 ft 484 kts 327°
2026-05-10 09:04 21.71891 59.22936 35856 ft 485 kts 327°
2026-05-10 09:05 21.77679 59.19176 35855 ft 486 kts 327°
2026-05-10 09:05 21.83476 59.15406 35861 ft 487 kts 327°
2026-05-10 09:06 21.89278 59.11628 35864 ft 487 kts 327°
2026-05-10 09:06 21.95082 59.07846 35865 ft 487 kts 327°
2026-05-10 09:07 22.00870 59.04070 35863 ft 487 kts 327°
2026-05-10 09:07 22.06661 59.00288 35872 ft 487 kts 327°
2026-05-10 09:08 22.12363 58.96560 35873 ft 487 kts 327°
2026-05-10 09:08 22.18154 58.92771 35872 ft 487 kts 326°
2026-05-10 09:09 22.23293 58.88132 35882 ft 481 kts 309°
2026-05-10 09:09 22.27015 58.82195 35883 ft 477 kts 296°
2026-05-10 09:10 22.31571 58.72682 35881 ft 478 kts 295°
2026-05-10 09:11 22.34637 58.66312 35879 ft 478 kts 296°
2026-05-10 09:11 22.37732 58.59964 35878 ft 478 kts 296°
2026-05-10 09:12 22.40838 58.53613 35882 ft 478 kts 296°
2026-05-10 09:12 22.43942 58.47262 35888 ft 478 kts 296°
2026-05-10 09:13 22.47040 58.40909 35880 ft 478 kts 296°
2026-05-10 09:13 22.50134 58.34555 35885 ft 477 kts 296°
2026-05-10 09:14 22.53223 58.28203 35883 ft 477 kts 296°
2026-05-10 09:14 22.56306 58.21854 35885 ft 476 kts 296°
2026-05-10 09:15 22.59384 58.15510 35881 ft 476 kts 296°
2026-05-10 09:15 22.62453 58.09175 35887 ft 475 kts 296°
2026-05-10 09:16 22.65521 58.02834 35892 ft 475 kts 296°
2026-05-10 09:16 22.68538 57.96591 35890 ft 475 kts 296°
2026-05-10 09:17 22.71599 57.90249 35900 ft 475 kts 296°
2026-05-10 09:17 22.74655 57.83908 35895 ft 475 kts 296°
2026-05-10 09:18 22.77706 57.77570 35911 ft 474 kts 296°
2026-05-10 09:18 22.80733 57.71275 35909 ft 474 kts 296°
2026-05-10 09:19 22.83776 57.64938 35911 ft 474 kts 296°
2026-05-10 09:19 22.86814 57.58604 35926 ft 474 kts 296°
2026-05-10 09:20 22.91370 57.49090 35926 ft 473 kts 295°
2026-05-10 09:20 22.94397 57.42756 35932 ft 473 kts 295°
2026-05-10 09:21 22.97419 57.36425 35927 ft 472 kts 295°
2026-05-10 09:21 23.00431 57.30110 35937 ft 472 kts 295°
2026-05-10 09:22 23.03450 57.23783 35937 ft 472 kts 295°
2026-05-10 09:22 23.06468 57.17452 35940 ft 472 kts 295°
2026-05-10 09:23 23.09483 57.11117 35938 ft 472 kts 295°
2026-05-10 09:23 23.12490 57.04790 35927 ft 471 kts 295°
2026-05-10 09:24 23.15435 56.98578 35936 ft 470 kts 295°
2026-05-10 09:24 23.18432 56.92261 35929 ft 471 kts 295°
2026-05-10 09:25 23.21431 56.85929 35925 ft 471 kts 295°
2026-05-10 09:25 23.24429 56.79588 35918 ft 472 kts 295°
2026-05-10 09:26 23.27423 56.73245 35918 ft 471 kts 295°
2026-05-10 09:26 23.30411 56.66909 35914 ft 470 kts 295°
2026-05-10 09:27 23.33391 56.60583 35912 ft 469 kts 295°
2026-05-10 09:27 23.36360 56.54271 35904 ft 469 kts 295°
2026-05-10 09:28 23.39326 56.47955 35920 ft 468 kts 295°
2026-05-10 09:28 23.42288 56.41641 35926 ft 468 kts 294°
2026-05-10 09:29 23.45247 56.35326 35906 ft 468 kts 294°
2026-05-10 09:29 23.48200 56.29013 35897 ft 467 kts 294°
2026-05-10 09:30 23.51147 56.22705 35908 ft 467 kts 294°
2026-05-10 09:30 23.54088 56.16404 35911 ft 466 kts 294°
2026-05-10 09:31 23.57018 56.10102 35924 ft 466 kts 294°
2026-05-10 09:31 23.59927 56.03801 35919 ft 466 kts 294°
2026-05-10 09:32 23.62789 55.97590 35906 ft 465 kts 294°
2026-05-10 09:32 23.65674 55.91325 35910 ft 465 kts 294°
2026-05-10 09:33 23.68576 55.85020 35900 ft 465 kts 294°
2026-05-10 09:33 23.71480 55.78716 35911 ft 465 kts 294°
2026-05-10 09:34 23.74402 55.72421 35895 ft 465 kts 294°
2026-05-10 09:34 23.77322 55.66124 35899 ft 465 kts 294°
2026-05-10 09:35 23.80231 55.59833 35897 ft 464 kts 294°
2026-05-10 09:35 23.83137 55.53540 35888 ft 464 kts 294°
2026-05-10 09:36 23.85814 55.47153 35888 ft 462 kts 290°
2026-05-10 09:36 23.88414 55.40737 35882 ft 462 kts 291°
2026-05-10 09:37 23.91059 55.34344 35875 ft 462 kts 291°
2026-05-10 09:37 23.94056 55.28122 35874 ft 465 kts 299°
2026-05-10 09:38 23.97572 55.22184 35877 ft 465 kts 299°
2026-05-10 09:38 24.01083 55.16254 35874 ft 466 kts 299°
2026-05-10 09:39 24.04550 55.10326 35863 ft 466 kts 299°
2026-05-10 09:39 24.08051 55.04315 35860 ft 466 kts 299°
2026-05-10 09:40 24.11479 54.98427 35863 ft 466 kts 299°
2026-05-10 09:40 24.14970 54.92451 35862 ft 466 kts 299°
2026-05-10 09:41 24.18443 54.86524 35854 ft 465 kts 298°
2026-05-10 09:41 24.21930 54.80560 35856 ft 464 kts 298°
2026-05-10 09:42 24.25409 54.74599 35854 ft 464 kts 298°
2026-05-10 09:42 24.28881 54.68639 35855 ft 464 kts 298°
2026-05-10 09:43 24.32347 54.62686 35858 ft 463 kts 298°
2026-05-10 09:43 24.35798 54.56726 35857 ft 462 kts 298°
2026-05-10 09:44 24.38784 54.50538 35858 ft 457 kts 289°
2026-05-10 09:44 24.40799 54.43975 35861 ft 452 kts 281°
2026-05-10 09:45 24.42273 54.37270 35871 ft 452 kts 280°
2026-05-10 09:45 24.43724 54.30564 35869 ft 452 kts 280°
2026-05-10 09:46 24.45201 54.23855 35880 ft 452 kts 281°
2026-05-10 09:46 24.46687 54.17152 35867 ft 452 kts 281°
2026-05-10 09:47 24.48170 54.10456 35871 ft 451 kts 281°
2026-05-10 09:47 24.49646 54.03767 35868 ft 450 kts 281°
2026-05-10 09:48 24.51095 53.97186 35871 ft 450 kts 281°
2026-05-10 09:48 24.52315 53.91635 35871 ft 450 kts 281°
2026-05-10 09:49 24.53923 53.84981 35866 ft 451 kts 282°
2026-05-10 09:49 24.55627 53.78345 35869 ft 451 kts 282°
2026-05-10 09:50 24.57319 53.71705 35875 ft 451 kts 282°
2026-05-10 09:50 24.58987 53.65065 35864 ft 451 kts 282°
2026-05-10 09:51 24.60644 53.58429 35865 ft 450 kts 282°
2026-05-10 09:51 24.62294 53.51799 35868 ft 450 kts 282°
2026-05-10 09:52 24.63942 53.45172 35863 ft 449 kts 282°
2026-05-10 09:52 24.65584 53.38555 35869 ft 449 kts 282°
2026-05-10 09:53 24.67224 53.31929 35866 ft 449 kts 282°
2026-05-10 09:53 24.68851 53.25346 35873 ft 449 kts 282°
2026-05-10 09:54 24.70486 53.18716 35865 ft 449 kts 282°
2026-05-10 09:54 24.72118 53.12086 35869 ft 449 kts 282°
2026-05-10 09:55 24.73747 53.05453 35869 ft 449 kts 282°
2026-05-10 09:55 24.75349 52.98921 35862 ft 449 kts 282°
2026-05-10 09:56 24.76972 52.92286 35873 ft 450 kts 282°
2026-05-10 09:56 24.78595 52.85636 35871 ft 450 kts 282°
2026-05-10 09:57 24.80217 52.78976 35884 ft 451 kts 282°
2026-05-10 09:57 24.81838 52.72312 35876 ft 451 kts 281°
2026-05-10 09:58 24.83454 52.65650 35875 ft 450 kts 281°
2026-05-10 09:58 24.85067 52.58994 35878 ft 450 kts 281°
2026-05-10 09:59 24.86689 52.52347 35874 ft 449 kts 281°
2026-05-10 09:59 24.88309 52.45704 35882 ft 449 kts 281°
2026-05-10 10:00 24.89691 52.39025 35873 ft 444 kts 271°
2026-05-10 10:00 24.89666 52.32259 35881 ft 442 kts 267°
2026-05-10 10:01 24.89698 52.25478 35891 ft 442 kts 266°
2026-05-10 10:01 24.89258 52.18783 35882 ft 437 kts 262°
2026-05-10 10:02 24.88963 52.15541 35531 ft 414 kts 263°
2026-05-10 10:02 24.88707 52.12459 34803 ft 397 kts 263°
2026-05-10 10:02 24.88473 52.09408 33088 ft 405 kts 264°
2026-05-10 10:02 24.88245 52.06301 31570 ft 408 kts 264°
2026-05-10 10:03 24.88019 52.03190 30148 ft 408 kts 264°
2026-05-10 10:03 24.87790 52.00077 28639 ft 407 kts 264°
2026-05-10 10:03 24.87569 51.97082 27354 ft 402 kts 264°
2026-05-10 10:03 24.87342 51.94037 26189 ft 396 kts 264°
2026-05-10 10:04 24.87118 51.91042 25064 ft 390 kts 264°
2026-05-10 10:04 24.86896 51.88090 23947 ft 386 kts 264°
2026-05-10 10:04 24.86675 51.85156 22708 ft 383 kts 264°
2026-05-10 10:04 24.86455 51.82243 21451 ft 380 kts 264°
2026-05-10 10:05 24.86237 51.79361 20372 ft 374 kts 264°
2026-05-10 10:05 24.86021 51.76522 19207 ft 372 kts 265°
2026-05-10 10:05 24.85804 51.73667 17950 ft 376 kts 265°
2026-05-10 10:05 24.85586 51.70811 16814 ft 371 kts 266°
2026-05-10 10:06 24.85373 51.68029 16143 ft 355 kts 267°
2026-05-10 10:06 24.85170 51.65398 15726 ft 335 kts 268°
2026-05-10 10:06 24.84988 51.62913 15260 ft 317 kts 272°
2026-05-10 10:06 24.85327 51.60601 14687 ft 300 kts 295°
2026-05-10 10:07 24.86361 51.58684 14101 ft 287 kts 313°
2026-05-10 10:07 24.87775 51.57180 13443 ft 279 kts 322°
2026-05-10 10:07 24.89243 51.55852 12671 ft 278 kts 323°
2026-05-10 10:07 24.90728 51.54518 11996 ft 273 kts 323°
2026-05-10 10:08 24.92177 51.53193 11360 ft 268 kts 322°
2026-05-10 10:08 24.93585 51.51891 10778 ft 261 kts 322°
2026-05-10 10:08 24.94957 51.50625 10185 ft 254 kts 325°
2026-05-10 10:08 24.96446 51.49692 9570 ft 247 kts 338°
2026-05-10 10:09 24.98035 51.49008 8843 ft 245 kts 340°
2026-05-10 10:09 24.99624 51.48343 8106 ft 244 kts 340°
2026-05-10 10:09 25.01201 51.47668 7415 ft 243 kts 339°
2026-05-10 10:09 25.02768 51.46988 6753 ft 241 kts 339°
2026-05-10 10:10 25.04326 51.46308 6409 ft 244 kts 339°
2026-05-10 10:10 25.07488 51.44919 6065 ft 242 kts 339°
2026-05-10 10:10 25.09040 51.44235 5921 ft 240 kts 339°
2026-05-10 10:11 25.10591 51.43551 5918 ft 240 kts 339°
2026-05-10 10:11 25.12140 51.42867 5912 ft 239 kts 339°
2026-05-10 10:11 25.13686 51.42185 5911 ft 239 kts 339°
2026-05-10 10:11 25.15228 51.41503 5905 ft 238 kts 339°
2026-05-10 10:12 25.16827 51.41096 5900 ft 238 kts
2026-05-10 10:12 25.18438 51.41554 5915 ft 245 kts 23°
2026-05-10 10:12 25.19836 51.42665 5915 ft 253 kts 40°
2026-05-10 10:12 25.20798 51.44378 5923 ft 276 kts 64°
2026-05-10 10:13 25.20980 51.46513 5799 ft 287 kts 94°
2026-05-10 10:13 25.20207 51.48564 5541 ft 295 kts 124°
2026-05-10 10:13 25.18621 51.49962 5276 ft 293 kts 155°
2026-05-10 10:13 25.16737 51.50804 4871 ft 294 kts 159°
2026-05-10 10:14 25.14832 51.51614 4570 ft 292 kts 159°
2026-05-10 10:14 25.12956 51.52420 4406 ft 287 kts 158°
2026-05-10 10:14 25.11113 51.53225 4285 ft 284 kts 158°
2026-05-10 10:14 25.09266 51.54034 4172 ft 287 kts 158°
2026-05-10 10:15 25.07394 51.54856 4060 ft 290 kts 158°
2026-05-10 10:15 25.05543 51.55670 3952 ft 290 kts 158°
2026-05-10 10:15 25.03677 51.56491 3814 ft 289 kts 158°
2026-05-10 10:15 25.01884 51.57493 3685 ft 282 kts 139°
2026-05-10 10:16 25.00715 51.59111 3604 ft 269 kts 109°
2026-05-10 10:16 25.00376 51.61042 3505 ft 249 kts 78°
2026-05-10 10:16 25.00819 51.62828 3511 ft 242 kts 62°
2026-05-10 10:16 25.01516 51.64599 3554 ft 257 kts 60°
2026-05-10 10:17 25.02258 51.66414 3545 ft 267 kts 60°
2026-05-10 10:17 25.03313 51.68192 3557 ft 294 kts 38°
2026-05-10 10:17 25.05146 51.69386 3604 ft 311 kts 14°
2026-05-10 10:17 25.07150 51.69628 3364 ft 275 kts 351°
2026-05-10 10:18 25.08827 51.68906 3063 ft 247 kts 324°
2026-05-10 10:18 25.10143 51.67852 2907 ft 222 kts 327°
2026-05-10 10:18 25.11422 51.67021 2876 ft 208 kts 330°
2026-05-10 10:18 25.12704 51.66272 2603 ft 205 kts 333°
2026-05-10 10:19 25.13953 51.65660 2380 ft 188 kts 336°
2026-05-10 10:19 25.15112 51.65144 2128 ft 174 kts 336°
2026-05-10 10:19 25.16206 51.64662 1899 ft 168 kts 335°
2026-05-10 10:19 25.17281 51.64187 1687 ft 161 kts 336°
2026-05-10 10:20 25.18292 51.63742 1485 ft 151 kts 336°
2026-05-10 10:20 25.19258 51.63316 1326 ft 150 kts 336°
2026-05-10 10:20 25.20188 51.62906 1114 ft 137 kts 335°
2026-05-10 10:20 25.21026 51.62538 966 ft 126 kts 334°
2026-05-10 10:21 25.21851 51.62172 810 ft 129 kts 336°
2026-05-10 10:21 25.22686 51.61805 656 ft 131 kts 336°
2026-05-10 10:21 25.23533 51.61430 502 ft 133 kts 337°
2026-05-10 10:21 25.24399 51.61043 314 ft 135 kts 338°
2026-05-10 10:22 25.25248 51.60666 144 ft 127 kts 340°
2026-05-10 10:22 25.26066 51.60307 42 ft 119 kts 340°
2026-05-10 10:22 25.26744 51.60010 30 ft 87 kts 338°
2026-05-10 10:22 25.27130 51.59842 31 ft 36 kts 342°
2026-05-10 10:23 25.27335 51.59822 31 ft 12 kts
2026-05-10 10:23 25.27389 51.59828 32 ft 4 kts
2026-05-10 10:23 25.27398 51.59829 32 ft 0 kts
2026-05-10 10:24 25.27435 51.59838 33 ft 8 kts 20°
2026-05-10 10:24 25.27457 51.59887 33 ft 8 kts 97°
2026-05-10 10:24 25.27418 51.59922 34 ft 8 kts 159°
2026-05-10 10:24 25.27363 51.59945 34 ft 9 kts 160°
2026-05-10 10:25 25.27304 51.59968 34 ft 9 kts 160°
2026-05-10 10:25 25.27241 51.59994 34 ft 10 kts 159°
2026-05-10 10:25 25.27175 51.60023 34 ft 11 kts 158°
2026-05-10 10:25 25.27102 51.60054 33 ft 12 kts 158°
2026-05-10 10:26 25.27019 51.60091 33 ft 14 kts 158°
2026-05-10 10:26 25.26956 51.60162 34 ft 14 kts 97°
2026-05-10 10:26 25.26903 51.60243 34 ft 14 kts 150°
2026-05-10 10:26 25.26814 51.60293 34 ft 14 kts 158°
2026-05-10 10:27 25.26720 51.60334 34 ft 14 kts 161°
2026-05-10 10:27 25.26632 51.60382 34 ft 14 kts 128°
2026-05-10 10:27 25.26641 51.60485 35 ft 14 kts 65°
2026-05-10 10:27 25.26682 51.60587 35 ft 14 kts 70°
2026-05-10 10:28 25.26670 51.60692 35 ft 15 kts 120°
2026-05-10 10:28 25.26623 51.60795 35 ft 15 kts 115°
2026-05-10 10:28 25.26580 51.60903 35 ft 15 kts 117°
2026-05-10 10:28 25.26582 51.61006 35 ft 8 kts 70°
2026-05-10 10:29 25.26592 51.61034 35 ft 2 kts 69°
2026-05-10 10:29 25.26593 51.61038 35 ft 0 kts 69°